Time,TemperatureF,DewpointF,PressureIn,WindDirection,WindDirectionDegrees,WindSpeedMPH,WindSpeedGustMPH,Humidity,HourlyPrecipIn,Conditions,Clouds,dailyrainin,SolarRadiationWatts/m^2,SoftwareType,DateUTC
2013-05-12 00:00:00,36.4,34.8,29.66,South,184,11.0,13.0,94,0.00,,,0.00,0,Wunderground v.1.15,2013-05-12 04:00:00,
2013-05-12 00:01:00,36.3,34.7,29.66,South,190,11.0,13.0,94,0.00,,,0.00,0,Wunderground v.1.15,2013-05-12 04:01:00,
2013-05-12 00:02:00,36.4,34.8,29.66,South,178,11.0,13.0,94,0.00,,,0.00,0,Wunderground v.1.15,2013-05-12 04:02:00,
2013-05-12 00:05:00,36.4,34.8,29.66,South,180,11.0,13.0,94,0.00,,,0.00,0,Wunderground v.1.15,2013-05-12 04:05:00,
2013-05-12 00:07:00,36.4,34.8,29.65,South,174,10.0,13.0,94,0.00,,,0.00,0,Wunderground v.1.15,2013-05-12 04:07:00,
2013-05-12 00:08:00,36.4,34.8,29.65,South,172,10.0,13.0,94,0.00,,,0.00,0,Wunderground v.1.15,2013-05-12 04:08:00,
2013-05-12 00:09:00,36.3,34.7,29.65,South,180,10.0,13.0,94,0.00,,,0.00,0,Wunderground v.1.15,2013-05-12 04:09:00,
2013-05-12 00:12:00,36.3,34.7,29.65,South,184,9.0,9.0,94,0.00,,,0.01,0,Wunderground v.1.15,2013-05-12 04:12:00,
2013-05-12 00:13:00,36.2,34.6,29.65,South,181,9.0,9.0,94,0.00,,,0.01,0,Wunderground v.1.15,2013-05-12 04:13:00,
2013-05-12 00:14:00,36.2,34.6,29.65,SSE,167,9.0,12.0,94,0.00,,,0.01,0,Wunderground v.1.15,2013-05-12 04:14:00,
2013-05-12 00:18:00,36.0,34.4,29.65,South,173,9.0,19.0,94,0.00,,,0.01,0,Wunderground v.1.15,2013-05-12 04:18:00,
2013-05-12 00:19:00,36.0,34.4,29.64,SSW,192,9.0,19.0,94,0.00,,,0.01,0,Wunderground v.1.15,2013-05-12 04:19:00,
2013-05-12 00:20:00,36.0,34.4,29.64,South,173,9.0,19.0,94,0.00,,,0.01,0,Wunderground v.1.15,2013-05-12 04:20:00,
2013-05-12 00:25:00,35.8,34.2,29.64,South,183,10.0,19.0,94,0.00,,,0.01,0,Wunderground v.1.15,2013-05-12 04:25:00,
2013-05-12 00:26:00,35.7,34.1,29.64,South,175,10.0,19.0,94,0.00,,,0.01,0,Wunderground v.1.15,2013-05-12 04:26:00,
2013-05-12 00:27:00,35.7,34.1,29.64,South,173,9.0,19.0,94,0.00,,,0.01,0,Wunderground v.1.15,2013-05-12 04:27:00,
2013-05-12 00:32:00,35.6,34.0,29.64,SSW,192,10.0,19.0,94,0.00,,,0.01,0,Wunderground v.1.15,2013-05-12 04:32:00,
2013-05-12 00:33:00,35.5,33.9,29.64,South,171,10.0,19.0,94,0.00,,,0.01,0,Wunderground v.1.15,2013-05-12 04:33:00,
2013-05-12 00:35:00,35.5,33.9,29.64,ENE,78,9.0,19.0,94,0.00,,,0.02,0,Wunderground v.1.15,2013-05-12 04:35:00,
2013-05-12 00:37:00,35.5,33.9,29.64,South,180,9.0,19.0,94,0.00,,,0.02,0,Wunderground v.1.15,2013-05-12 04:37:00,
2013-05-12 00:40:00,35.4,33.8,29.64,South,172,9.0,19.0,94,0.00,,,0.02,0,Wunderground v.1.15,2013-05-12 04:40:00,
2013-05-12 00:41:00,35.4,33.8,29.64,South,190,9.0,19.0,94,0.00,,,0.02,0,Wunderground v.1.15,2013-05-12 04:41:00,
2013-05-12 00:42:00,35.4,33.8,29.64,South,172,9.0,19.0,94,0.00,,,0.02,0,Wunderground v.1.15,2013-05-12 04:42:00,
2013-05-12 00:46:00,35.3,33.7,29.64,South,180,9.0,19.0,94,0.00,,,0.02,0,Wunderground v.1.15,2013-05-12 04:46:00,
2013-05-12 00:47:00,35.4,34.1,29.64,South,177,9.0,19.0,95,0.00,,,0.02,0,Wunderground v.1.15,2013-05-12 04:47:00,
2013-05-12 00:48:00,35.3,34.0,29.64,South,190,9.0,19.0,95,0.00,,,0.02,0,Wunderground v.1.15,2013-05-12 04:48:00,
2013-05-12 00:49:00,35.4,34.1,29.64,South,184,8.0,19.0,95,0.00,,,0.02,0,Wunderground v.1.15,2013-05-12 04:49:00,
2013-05-12 00:51:00,35.4,33.8,29.64,South,176,8.0,10.0,94,0.00,,,0.02,0,Wunderground v.1.15,2013-05-12 04:51:00,
2013-05-12 00:53:00,35.3,33.7,29.64,South,183,9.0,19.0,94,0.00,,,0.02,0,Wunderground v.1.15,2013-05-12 04:53:00,
2013-05-12 00:54:00,35.3,34.0,29.64,South,183,9.0,19.0,95,0.00,,,0.02,0,Wunderground v.1.15,2013-05-12 04:54:00,
2013-05-12 00:56:00,35.3,33.7,29.64,South,175,9.0,19.0,94,0.00,,,0.02,0,Wunderground v.1.15,2013-05-12 04:56:00,
2013-05-12 00:57:00,35.3,33.7,29.64,South,184,9.0,19.0,94,0.00,,,0.02,0,Wunderground v.1.15,2013-05-12 04:57:00,
2013-05-12 00:59:00,35.3,33.7,29.64,South,178,9.0,19.0,94,0.00,,,0.02,0,Wunderground v.1.15,2013-05-12 04:59:00,
2013-05-12 01:00:00,35.2,33.6,29.63,SSW,194,9.0,9.0,94,0.00,,,0.02,0,Wunderground v.1.15,2013-05-12 05:00:00,
2013-05-12 01:02:00,35.2,33.6,29.63,South,178,8.0,19.0,94,0.00,,,0.02,0,Wunderground v.1.15,2013-05-12 05:02:00,
2013-05-12 01:05:00,35.2,33.9,29.63,South,190,9.0,19.0,95,0.00,,,0.02,0,Wunderground v.1.15,2013-05-12 05:05:00,
2013-05-12 01:08:00,35.2,33.9,29.63,South,184,9.0,19.0,95,0.00,,,0.02,0,Wunderground v.1.15,2013-05-12 05:08:00,
2013-05-12 01:10:00,35.2,33.9,29.63,South,190,9.0,9.0,95,0.00,,,0.02,0,Wunderground v.1.15,2013-05-12 05:10:00,
2013-05-12 01:14:00,35.1,33.8,29.63,South,189,7.0,19.0,95,0.00,,,0.02,0,Wunderground v.1.15,2013-05-12 05:14:00,
2013-05-12 01:15:00,35.1,33.8,29.64,South,171,7.0,19.0,95,0.00,,,0.02,0,Wunderground v.1.15,2013-05-12 05:15:00,
2013-05-12 01:18:00,35.1,33.8,29.63,South,180,7.0,19.0,95,0.00,,,0.02,0,Wunderground v.1.15,2013-05-12 05:18:00,
2013-05-12 01:19:00,35.1,33.8,29.63,South,174,6.0,19.0,95,0.00,,,0.02,0,Wunderground v.1.15,2013-05-12 05:19:00,
2013-05-12 01:20:00,35.1,33.8,29.63,South,190,6.0,6.0,95,0.00,,,0.02,0,Wunderground v.1.15,2013-05-12 05:20:00,
2013-05-12 01:23:00,35.1,33.8,29.63,SSW,202,5.0,19.0,95,0.00,,,0.03,0,Wunderground v.1.15,2013-05-12 05:23:00,
2013-05-12 01:25:00,35.1,33.8,29.63,SSW,202,5.0,19.0,95,0.00,,,0.03,0,Wunderground v.1.15,2013-05-12 05:25:00,
2013-05-12 01:28:00,35.0,33.7,29.63,South,184,4.0,19.0,95,0.00,,,0.03,0,Wunderground v.1.15,2013-05-12 05:28:00,
2013-05-12 01:31:00,35.1,33.8,29.63,SSE,154,5.0,7.0,95,0.00,,,0.03,0,Wunderground v.1.15,2013-05-12 05:31:00,
2013-05-12 01:32:00,35.1,33.8,29.64,SW,223,6.0,19.0,95,0.00,,,0.03,0,Wunderground v.1.15,2013-05-12 05:32:00,
2013-05-12 01:33:00,35.1,33.8,29.64,SSE,167,6.0,19.0,95,0.06,,,0.04,0,Wunderground v.1.15,2013-05-12 05:33:00,
2013-05-12 01:34:00,35.1,33.8,29.63,SW,215,6.0,19.0,95,0.06,,,0.04,0,Wunderground v.1.15,2013-05-12 05:34:00,
2013-05-12 01:39:00,35.2,33.9,29.63,South,182,9.0,19.0,95,0.06,,,0.04,0,Wunderground v.1.15,2013-05-12 05:39:00,
2013-05-12 01:40:00,35.2,33.9,29.63,SSW,201,9.0,19.0,95,0.06,,,0.04,0,Wunderground v.1.15,2013-05-12 05:40:00,
2013-05-12 01:42:00,35.3,34.0,29.63,South,178,10.0,19.0,95,0.06,,,0.04,0,Wunderground v.1.15,2013-05-12 05:42:00,
2013-05-12 01:45:00,35.3,34.0,29.63,South,183,10.0,19.0,95,0.05,,,0.04,0,Wunderground v.1.15,2013-05-12 05:45:00,
2013-05-12 01:48:00,35.4,34.1,29.63,SSW,213,9.0,19.0,95,0.04,,,0.04,0,Wunderground v.1.15,2013-05-12 05:48:00,
2013-05-12 01:49:00,35.4,34.1,29.63,SW,215,10.0,19.0,95,0.04,,,0.04,0,Wunderground v.1.15,2013-05-12 05:49:00,
2013-05-12 01:51:00,35.5,34.2,29.63,South,181,10.0,19.0,95,0.00,,,0.04,0,Wunderground v.1.15,2013-05-12 05:51:00,
2013-05-12 01:53:00,35.5,34.2,29.63,South,189,9.0,19.0,95,0.00,,,0.04,0,Wunderground v.1.15,2013-05-12 05:53:00,
2013-05-12 01:55:00,35.5,34.2,29.63,South,189,10.0,19.0,95,0.00,,,0.04,0,Wunderground v.1.15,2013-05-12 05:55:00,
2013-05-12 01:56:00,35.5,34.2,29.63,South,183,10.0,19.0,95,0.00,,,0.05,0,Wunderground v.1.15,2013-05-12 05:56:00,
2013-05-12 02:01:00,35.5,34.2,29.63,SSW,202,10.0,19.0,95,0.00,,,0.05,0,Wunderground v.1.15,2013-05-12 06:01:00,
2013-05-12 02:02:00,35.5,34.2,29.63,South,182,10.0,19.0,95,0.00,,,0.05,0,Wunderground v.1.15,2013-05-12 06:02:00,
2013-05-12 02:03:00,35.5,34.2,29.63,South,174,10.0,19.0,95,0.00,,,0.05,0,Wunderground v.1.15,2013-05-12 06:03:00,
2013-05-12 02:04:00,35.5,34.2,29.63,SSW,209,10.0,19.0,95,0.00,,,0.05,0,Wunderground v.1.15,2013-05-12 06:04:00,
2013-05-12 02:08:00,35.4,34.1,29.63,South,183,9.0,19.0,95,0.00,,,0.05,0,Wunderground v.1.15,2013-05-12 06:08:00,
2013-05-12 02:10:00,35.4,34.1,29.63,South,191,9.0,19.0,95,0.00,,,0.05,0,Wunderground v.1.15,2013-05-12 06:10:00,
2013-05-12 02:11:00,35.4,34.1,29.63,South,188,9.0,19.0,95,0.00,,,0.05,0,Wunderground v.1.15,2013-05-12 06:11:00,
2013-05-12 02:12:00,35.4,34.1,29.63,South,184,9.0,19.0,95,0.00,,,0.05,0,Wunderground v.1.15,2013-05-12 06:12:00,
2013-05-12 02:17:00,35.4,34.1,29.63,SSW,194,9.0,19.0,95,0.00,,,0.06,0,Wunderground v.1.15,2013-05-12 06:17:00,
2013-05-12 02:18:00,35.4,34.1,29.63,SSW,205,9.0,19.0,95,0.00,,,0.06,0,Wunderground v.1.15,2013-05-12 06:18:00,
2013-05-12 02:23:00,35.3,34.0,29.63,SSE,165,9.0,19.0,95,0.00,,,0.06,0,Wunderground v.1.15,2013-05-12 06:23:00,
2013-05-12 02:24:00,35.3,34.0,29.63,SW,234,9.0,19.0,95,0.00,,,0.06,0,Wunderground v.1.15,2013-05-12 06:24:00,
2013-05-12 02:25:00,35.3,34.0,29.63,South,170,9.0,19.0,95,0.00,,,0.06,0,Wunderground v.1.15,2013-05-12 06:25:00,
2013-05-12 02:28:00,35.3,34.0,29.63,SSW,196,8.0,19.0,95,0.00,,,0.06,0,Wunderground v.1.15,2013-05-12 06:28:00,
2013-05-12 02:29:00,35.3,34.0,29.63,SSW,197,8.0,19.0,95,0.00,,,0.06,0,Wunderground v.1.15,2013-05-12 06:29:00,
2013-05-12 02:32:00,35.3,34.0,29.63,SSW,209,8.0,19.0,95,0.00,,,0.06,0,Wunderground v.1.15,2013-05-12 06:32:00,
2013-05-12 02:33:00,35.2,33.9,29.63,SSW,211,7.0,19.0,95,0.00,,,0.06,0,Wunderground v.1.15,2013-05-12 06:33:00,
2013-05-12 02:34:00,35.2,33.9,29.63,SSW,203,7.0,19.0,95,0.00,,,0.06,0,Wunderground v.1.15,2013-05-12 06:34:00,
2013-05-12 02:35:00,35.2,33.9,29.63,SSW,213,7.0,19.0,95,0.00,,,0.06,0,Wunderground v.1.15,2013-05-12 06:35:00,
2013-05-12 02:40:00,35.1,33.8,29.63,SSW,192,7.0,19.0,95,0.00,,,0.06,0,Wunderground v.1.15,2013-05-12 06:40:00,
2013-05-12 02:41:00,35.1,33.8,29.63,SSW,209,7.0,19.0,95,0.00,,,0.06,0,Wunderground v.1.15,2013-05-12 06:41:00,
2013-05-12 02:44:00,35.0,33.7,29.63,WSW,242,7.0,19.0,95,0.00,,,0.06,0,Wunderground v.1.15,2013-05-12 06:44:00,
2013-05-12 02:46:00,35.0,33.7,29.63,SSW,196,7.0,19.0,95,0.00,,,0.06,0,Wunderground v.1.15,2013-05-12 06:46:00,
2013-05-12 02:47:00,35.0,33.7,29.63,SSW,197,7.0,19.0,95,0.00,,,0.07,0,Wunderground v.1.15,2013-05-12 06:47:00,
2013-05-12 02:51:00,35.0,33.7,29.63,SSW,209,7.0,19.0,95,0.00,,,0.07,0,Wunderground v.1.15,2013-05-12 06:51:00,
2013-05-12 02:52:00,35.0,33.7,29.63,SSW,209,7.0,19.0,95,0.00,,,0.07,0,Wunderground v.1.15,2013-05-12 06:52:00,
2013-05-12 02:56:00,35.1,33.8,29.63,South,172,8.0,19.0,95,0.07,,,0.08,0,Wunderground v.1.15,2013-05-12 06:56:00,
2013-05-12 02:57:00,35.1,33.8,29.63,South,177,8.0,19.0,95,0.07,,,0.08,0,Wunderground v.1.15,2013-05-12 06:57:00,
2013-05-12 02:59:00,35.1,33.8,29.64,SSW,212,8.0,19.0,95,0.07,,,0.08,0,Wunderground v.1.15,2013-05-12 06:59:00,
2013-05-12 03:00:00,35.1,33.8,29.64,South,182,8.0,19.0,95,0.07,,,0.08,0,Wunderground v.1.15,2013-05-12 07:00:00,
2013-05-12 03:02:00,35.1,33.8,29.64,SSW,210,8.0,19.0,95,0.07,,,0.08,0,Wunderground v.1.15,2013-05-12 07:02:00,
2013-05-12 03:04:00,35.1,33.8,29.64,South,175,8.0,19.0,95,0.07,,,0.08,0,Wunderground v.1.15,2013-05-12 07:04:00,
2013-05-12 03:06:00,35.1,33.8,29.64,SW,214,7.0,19.0,95,0.05,,,0.08,0,Wunderground v.1.15,2013-05-12 07:06:00,
2013-05-12 03:07:00,35.1,33.8,29.64,SSW,200,7.0,19.0,95,0.05,,,0.08,0,Wunderground v.1.15,2013-05-12 07:07:00,
2013-05-12 03:10:00,35.1,33.8,29.64,SSE,167,7.0,19.0,95,0.04,,,0.08,0,Wunderground v.1.15,2013-05-12 07:10:00,
2013-05-12 03:13:00,35.1,33.8,29.64,SSW,211,7.0,19.0,95,0.00,,,0.08,0,Wunderground v.1.15,2013-05-12 07:13:00,
2013-05-12 03:18:00,35.0,33.7,29.64,South,190,7.0,19.0,95,0.00,,,0.08,0,Wunderground v.1.15,2013-05-12 07:18:00,
2013-05-12 03:19:00,35.1,33.8,29.65,South,186,7.0,19.0,95,0.00,,,0.08,0,Wunderground v.1.15,2013-05-12 07:19:00,
2013-05-12 03:21:00,35.1,33.8,29.65,South,180,7.0,19.0,95,0.00,,,0.08,0,Wunderground v.1.15,2013-05-12 07:21:00,
2013-05-12 03:22:00,35.1,33.8,29.65,SW,219,6.0,19.0,95,0.00,,,0.09,0,Wunderground v.1.15,2013-05-12 07:22:00,
2013-05-12 03:23:00,35.1,33.8,29.65,SSW,213,6.0,19.0,95,0.00,,,0.09,0,Wunderground v.1.15,2013-05-12 07:23:00,
2013-05-12 03:25:00,35.1,33.8,29.65,SSW,209,6.0,19.0,95,0.00,,,0.09,0,Wunderground v.1.15,2013-05-12 07:25:00,
2013-05-12 03:26:00,35.1,33.8,29.65,SW,219,6.0,19.0,95,0.00,,,0.09,0,Wunderground v.1.15,2013-05-12 07:26:00,
2013-05-12 03:27:00,35.2,33.9,29.65,SSW,210,6.0,19.0,95,0.00,,,0.09,0,Wunderground v.1.15,2013-05-12 07:27:00,
2013-05-12 03:32:00,35.2,33.9,29.65,South,175,7.0,19.0,95,0.00,,,0.09,0,Wunderground v.1.15,2013-05-12 07:32:00,
2013-05-12 03:33:00,35.2,33.9,29.65,South,171,7.0,19.0,95,0.00,,,0.09,0,Wunderground v.1.15,2013-05-12 07:33:00,
2013-05-12 03:34:00,35.2,33.9,29.65,SSW,198,7.0,19.0,95,0.00,,,0.09,0,Wunderground v.1.15,2013-05-12 07:34:00,
2013-05-12 03:37:00,35.2,33.9,29.66,South,184,7.0,19.0,95,0.00,,,0.09,0,Wunderground v.1.15,2013-05-12 07:37:00,
2013-05-12 03:38:00,35.2,33.9,29.65,SSW,201,7.0,19.0,95,0.00,,,0.09,0,Wunderground v.1.15,2013-05-12 07:38:00,
2013-05-12 03:39:00,35.2,33.9,29.66,South,180,7.0,19.0,95,0.00,,,0.09,0,Wunderground v.1.15,2013-05-12 07:39:00,
2013-05-12 03:43:00,35.2,33.9,29.66,SSW,197,7.0,19.0,95,0.00,,,0.10,0,Wunderground v.1.15,2013-05-12 07:43:00,
2013-05-12 03:45:00,35.2,33.9,29.66,SSW,198,6.0,19.0,95,0.00,,,0.10,0,Wunderground v.1.15,2013-05-12 07:45:00,
2013-05-12 03:46:00,35.1,33.8,29.66,South,185,6.0,19.0,95,0.00,,,0.10,0,Wunderground v.1.15,2013-05-12 07:46:00,
2013-05-12 03:48:00,35.1,33.8,29.66,South,188,6.0,19.0,95,0.00,,,0.10,0,Wunderground v.1.15,2013-05-12 07:48:00,
2013-05-12 03:50:00,35.1,33.8,29.66,SSW,206,7.0,7.0,95,0.00,,,0.10,0,Wunderground v.1.15,2013-05-12 07:50:00,
2013-05-12 03:52:00,35.1,33.8,29.66,SSW,194,6.0,19.0,95,0.00,,,0.10,0,Wunderground v.1.15,2013-05-12 07:52:00,
2013-05-12 03:54:00,35.0,33.7,29.66,South,170,7.0,19.0,95,0.00,,,0.10,0,Wunderground v.1.15,2013-05-12 07:54:00,
2013-05-12 03:55:00,35.0,33.7,29.67,SSW,202,7.0,19.0,95,0.00,,,0.10,0,Wunderground v.1.15,2013-05-12 07:55:00,
2013-05-12 03:56:00,35.0,33.7,29.67,SW,222,7.0,19.0,95,0.00,,,0.10,0,Wunderground v.1.15,2013-05-12 07:56:00,
2013-05-12 03:59:00,35.0,33.7,29.67,SSW,194,6.0,19.0,95,0.00,,,0.10,0,Wunderground v.1.15,2013-05-12 07:59:00,
2013-05-12 04:00:00,35.0,33.7,29.67,SSW,198,6.0,19.0,95,0.00,,,0.10,0,Wunderground v.1.15,2013-05-12 08:00:00,
2013-05-12 04:01:00,34.9,33.6,29.67,SW,232,6.0,19.0,95,0.00,,,0.10,0,Wunderground v.1.15,2013-05-12 08:01:00,
2013-05-12 04:02:00,34.9,33.6,29.67,SSW,203,5.0,19.0,95,0.00,,,0.10,0,Wunderground v.1.15,2013-05-12 08:02:00,
2013-05-12 04:07:00,34.8,33.5,29.68,SSW,209,4.0,19.0,95,0.00,,,0.10,0,Wunderground v.1.15,2013-05-12 08:07:00,
2013-05-12 04:09:00,34.8,33.5,29.68,SSW,201,4.0,19.0,95,0.00,,,0.10,0,Wunderground v.1.15,2013-05-12 08:09:00,
2013-05-12 04:12:00,34.7,33.2,29.68,SSW,203,4.0,19.0,94,0.00,,,0.10,0,Wunderground v.1.15,2013-05-12 08:12:00,
2013-05-12 04:14:00,34.6,33.1,29.68,SSW,213,4.0,19.0,94,0.00,,,0.10,0,Wunderground v.1.15,2013-05-12 08:14:00,
2013-05-12 04:15:00,34.6,33.1,29.68,South,190,4.0,19.0,94,0.00,,,0.10,0,Wunderground v.1.15,2013-05-12 08:15:00,
2013-05-12 04:16:00,34.5,33.0,29.68,South,190,4.0,19.0,94,0.00,,,0.10,0,Wunderground v.1.15,2013-05-12 08:16:00,
2013-05-12 04:21:00,34.5,33.0,29.68,SSW,209,5.0,19.0,94,0.00,,,0.10,0,Wunderground v.1.15,2013-05-12 08:21:00,
2013-05-12 04:22:00,34.5,33.0,29.69,SW,221,5.0,19.0,94,0.00,,,0.10,0,Wunderground v.1.15,2013-05-12 08:22:00,
2013-05-12 04:23:00,34.5,33.0,29.69,SW,221,5.0,19.0,94,0.00,,,0.10,0,Wunderground v.1.15,2013-05-12 08:23:00,
2013-05-12 04:25:00,34.5,33.2,29.69,SSW,193,4.0,19.0,95,0.00,,,0.10,0,Wunderground v.1.15,2013-05-12 08:25:00,
2013-05-12 04:27:00,34.5,33.2,29.69,SSW,193,3.0,19.0,95,0.00,,,0.11,0,Wunderground v.1.15,2013-05-12 08:27:00,
2013-05-12 04:28:00,34.4,33.1,29.69,SSW,193,3.0,19.0,95,0.00,,,0.11,0,Wunderground v.1.15,2013-05-12 08:28:00,
2013-05-12 04:29:00,34.5,33.2,29.69,SSW,193,2.0,19.0,95,0.00,,,0.11,0,Wunderground v.1.15,2013-05-12 08:29:00,
2013-05-12 04:32:00,34.4,33.1,29.70,SSW,194,1.0,7.0,95,0.00,,,0.11,0,Wunderground v.1.15,2013-05-12 08:32:00,
2013-05-12 04:36:00,34.4,33.1,29.70,SW,225,2.0,19.0,95,0.00,,,0.11,0,Wunderground v.1.15,2013-05-12 08:36:00,
2013-05-12 04:38:00,34.4,33.1,29.70,SSW,196,3.0,19.0,95,0.00,,,0.11,0,Wunderground v.1.15,2013-05-12 08:38:00,
2013-05-12 04:40:00,34.4,33.1,29.70,South,190,4.0,19.0,95,0.04,,,0.12,0,Wunderground v.1.15,2013-05-12 08:40:00,
2013-05-12 04:43:00,34.4,33.1,29.70,South,183,5.0,19.0,95,0.04,,,0.12,0,Wunderground v.1.15,2013-05-12 08:43:00,
2013-05-12 04:45:00,34.3,33.0,29.70,South,178,5.0,19.0,95,0.04,,,0.12,0,Wunderground v.1.15,2013-05-12 08:45:00,
2013-05-12 04:49:00,34.2,32.9,29.70,SSW,196,5.0,19.0,95,0.04,,,0.12,0,Wunderground v.1.15,2013-05-12 08:49:00,
2013-05-12 04:52:00,34.3,33.0,29.70,SSW,193,5.0,19.0,95,0.04,,,0.12,0,Wunderground v.1.15,2013-05-12 08:52:00,
2013-05-12 04:54:00,34.2,32.9,29.70,South,173,5.0,19.0,95,0.04,,,0.12,0,Wunderground v.1.15,2013-05-12 08:54:00,
2013-05-12 04:55:00,34.2,32.9,29.70,SSW,210,5.0,19.0,95,0.04,,,0.12,0,Wunderground v.1.15,2013-05-12 08:55:00,
2013-05-12 04:58:00,34.1,32.8,29.70,South,175,6.0,19.0,95,0.00,,,0.12,0,Wunderground v.1.15,2013-05-12 08:58:00,
2013-05-12 05:00:00,34.1,32.8,29.70,SSW,206,7.0,19.0,95,0.00,,,0.12,0,Wunderground v.1.15,2013-05-12 09:00:00,
2013-05-12 05:01:00,34.1,32.8,29.70,SSW,193,7.0,19.0,95,0.00,,,0.12,0,Wunderground v.1.15,2013-05-12 09:01:00,
2013-05-12 05:04:00,34.0,32.7,29.70,South,182,7.0,19.0,95,0.00,,,0.13,0,Wunderground v.1.15,2013-05-12 09:04:00,
2013-05-12 05:05:00,34.0,32.7,29.70,SSW,200,8.0,19.0,95,0.00,,,0.13,0,Wunderground v.1.15,2013-05-12 09:05:00,
2013-05-12 05:06:00,33.9,32.6,29.70,SSW,208,7.0,19.0,95,0.00,,,0.13,0,Wunderground v.1.15,2013-05-12 09:06:00,
2013-05-12 05:10:00,33.9,32.6,29.70,South,190,8.0,19.0,95,0.00,,,0.13,0,Wunderground v.1.15,2013-05-12 09:10:00,
2013-05-12 05:11:00,33.9,32.6,29.70,SSW,199,8.0,19.0,95,0.07,,,0.14,0,Wunderground v.1.15,2013-05-12 09:11:00,
2013-05-12 05:12:00,33.9,32.6,29.70,SSW,207,8.0,19.0,95,0.07,,,0.14,0,Wunderground v.1.15,2013-05-12 09:12:00,
2013-05-12 05:13:00,33.8,32.5,29.70,SSW,202,8.0,19.0,95,0.07,,,0.14,0,Wunderground v.1.15,2013-05-12 09:13:00,
2013-05-12 05:14:00,33.8,32.5,29.70,South,174,8.0,19.0,95,0.07,,,0.14,0,Wunderground v.1.15,2013-05-12 09:14:00,
2013-05-12 05:16:00,33.8,32.5,29.70,SSW,201,9.0,19.0,95,0.07,,,0.14,0,Wunderground v.1.15,2013-05-12 09:16:00,
2013-05-12 05:19:00,33.7,32.4,29.70,South,182,9.0,19.0,95,0.07,,,0.14,0,Wunderground v.1.15,2013-05-12 09:19:00,
2013-05-12 05:20:00,33.7,32.4,29.70,South,187,9.0,9.0,95,0.06,,,0.14,0,Wunderground v.1.15,2013-05-12 09:20:00,
2013-05-12 05:23:00,33.7,32.4,29.71,South,171,9.0,19.0,95,0.05,,,0.14,0,Wunderground v.1.15,2013-05-12 09:23:00,
2013-05-12 05:26:00,33.7,32.4,29.71,SSW,198,10.0,19.0,95,0.04,,,0.14,0,Wunderground v.1.15,2013-05-12 09:26:00,
2013-05-12 05:28:00,33.7,32.4,29.71,South,184,10.0,19.0,95,0.00,,,0.14,0,Wunderground v.1.15,2013-05-12 09:28:00,
2013-05-12 05:31:00,33.7,32.4,29.71,SSW,205,9.0,19.0,95,0.00,,,0.14,0,Wunderground v.1.15,2013-05-12 09:31:00,
2013-05-12 05:32:00,33.7,32.4,29.71,South,190,9.0,19.0,95,0.00,,,0.14,0,Wunderground v.1.15,2013-05-12 09:32:00,
2013-05-12 05:34:00,33.6,32.3,29.72,SSW,197,9.0,19.0,95,0.00,,,0.14,0,Wunderground v.1.15,2013-05-12 09:34:00,
2013-05-12 05:37:00,33.6,32.3,29.72,SW,218,10.0,19.0,95,0.00,,,0.15,0,Wunderground v.1.15,2013-05-12 09:37:00,
2013-05-12 05:39:00,33.6,32.3,29.72,SSW,210,9.0,19.0,95,0.00,,,0.15,0,Wunderground v.1.15,2013-05-12 09:39:00,
2013-05-12 05:40:00,33.6,32.3,29.72,SSE,164,9.0,9.0,95,0.00,,,0.15,0,Wunderground v.1.15,2013-05-12 09:40:00,
2013-05-12 05:44:00,33.6,32.3,29.71,South,175,8.0,19.0,95,0.00,,,0.15,0,Wunderground v.1.15,2013-05-12 09:44:00,
2013-05-12 05:45:00,33.7,32.4,29.72,SSW,206,8.0,19.0,95,0.00,,,0.15,0,Wunderground v.1.15,2013-05-12 09:45:00,
2013-05-12 05:46:00,33.7,32.4,29.72,SSW,203,7.0,19.0,95,0.00,,,0.15,0,Wunderground v.1.15,2013-05-12 09:46:00,
2013-05-12 05:47:00,33.7,32.4,29.72,WNW,289,7.0,19.0,95,0.00,,,0.15,0,Wunderground v.1.15,2013-05-12 09:47:00,
2013-05-12 05:48:00,33.7,32.2,29.72,SSW,200,7.0,19.0,94,0.00,,,0.15,0,Wunderground v.1.15,2013-05-12 09:48:00,
2013-05-12 05:51:00,33.7,32.2,29.72,SSW,198,7.0,19.0,94,0.00,,,0.15,0,Wunderground v.1.15,2013-05-12 09:51:00,
2013-05-12 05:52:00,33.7,32.2,29.71,SSW,210,6.0,19.0,94,0.00,,,0.15,0,Wunderground v.1.15,2013-05-12 09:52:00,
2013-05-12 05:53:00,33.7,32.2,29.72,SSW,207,6.0,19.0,94,0.00,,,0.15,0,Wunderground v.1.15,2013-05-12 09:53:00,
2013-05-12 05:55:00,33.7,32.2,29.72,South,179,6.0,19.0,94,0.00,,,0.15,0,Wunderground v.1.15,2013-05-12 09:55:00,
2013-05-12 05:56:00,33.8,32.3,29.72,South,185,6.0,19.0,94,0.00,,,0.15,0,Wunderground v.1.15,2013-05-12 09:56:00,
2013-05-12 05:57:00,33.8,32.3,29.72,SSW,198,7.0,19.0,94,0.00,,,0.15,0,Wunderground v.1.15,2013-05-12 09:57:00,
2013-05-12 05:58:00,33.8,32.3,29.72,SSW,198,7.0,19.0,94,0.00,,,0.15,0,Wunderground v.1.15,2013-05-12 09:58:00,
2013-05-12 06:01:00,33.9,32.4,29.72,SSW,209,7.0,19.0,94,0.00,,,0.15,0,Wunderground v.1.15,2013-05-12 10:01:00,
2013-05-12 06:02:00,33.9,32.4,29.71,South,187,7.0,24.0,94,0.00,,,0.15,0,Wunderground v.1.15,2013-05-12 10:02:00,
2013-05-12 06:06:00,34.0,32.2,29.72,South,183,9.0,24.0,93,0.00,,,0.15,0,Wunderground v.1.15,2013-05-12 10:06:00,
2013-05-12 06:07:00,34.1,32.3,29.72,South,180,10.0,24.0,93,0.00,,,0.15,0,Wunderground v.1.15,2013-05-12 10:07:00,
2013-05-12 06:08:00,34.1,32.3,29.72,SSW,211,10.0,24.0,93,0.00,,,0.15,0,Wunderground v.1.15,2013-05-12 10:08:00,
2013-05-12 06:10:00,34.1,32.3,29.72,South,191,11.0,11.0,93,0.00,,,0.15,0,Wunderground v.1.15,2013-05-12 10:10:00,
2013-05-12 06:14:00,34.1,32.3,29.72,SSW,205,10.0,19.0,93,0.00,,,0.15,0,Wunderground v.1.15,2013-05-12 10:14:00,
2013-05-12 06:15:00,34.1,32.0,29.72,South,178,10.0,19.0,92,0.00,,,0.15,0,Wunderground v.1.15,2013-05-12 10:15:00,
2013-05-12 06:16:00,34.1,32.0,29.72,South,178,9.0,19.0,92,0.00,,,0.15,0,Wunderground v.1.15,2013-05-12 10:16:00,
2013-05-12 06:17:00,34.1,32.0,29.72,SSW,195,10.0,19.0,92,0.00,,,0.15,0,Wunderground v.1.15,2013-05-12 10:17:00,
2013-05-12 06:20:00,34.1,31.7,29.72,SSW,211,11.0,11.0,91,0.00,,,0.15,5,Wunderground v.1.15,2013-05-12 10:20:00,
2013-05-12 06:21:00,34.1,31.7,29.72,SSW,192,12.0,12.0,91,0.00,,,0.15,5,Wunderground v.1.15,2013-05-12 10:21:00,
2013-05-12 06:22:00,34.1,31.7,29.72,SSW,192,11.0,19.0,91,0.00,,,0.15,7,Wunderground v.1.15,2013-05-12 10:22:00,
2013-05-12 06:24:00,34.1,31.5,29.72,South,178,11.0,19.0,90,0.00,,,0.15,7,Wunderground v.1.15,2013-05-12 10:24:00,
2013-05-12 06:26:00,34.1,31.5,29.73,South,182,12.0,19.0,90,0.00,,,0.15,9,Wunderground v.1.15,2013-05-12 10:26:00,
2013-05-12 06:29:00,34.1,31.5,29.73,SW,217,11.0,19.0,90,0.00,,,0.15,11,Wunderground v.1.15,2013-05-12 10:29:00,
2013-05-12 06:30:00,34.1,31.5,29.73,SSW,202,11.0,19.0,90,0.00,,,0.15,12,Wunderground v.1.15,2013-05-12 10:30:00,
2013-05-12 06:32:00,34.0,31.1,29.73,SSW,202,12.0,19.0,89,0.00,,,0.15,12,Wunderground v.1.15,2013-05-12 10:32:00,
2013-05-12 06:33:00,34.0,31.1,29.73,South,175,12.0,19.0,89,0.00,,,0.15,12,Wunderground v.1.15,2013-05-12 10:33:00,
2013-05-12 06:36:00,34.0,30.8,29.73,South,188,11.0,19.0,88,0.00,,,0.15,14,Wunderground v.1.15,2013-05-12 10:36:00,
2013-05-12 06:37:00,34.1,30.9,29.73,South,178,12.0,19.0,88,0.00,,,0.15,14,Wunderground v.1.15,2013-05-12 10:37:00,
2013-05-12 06:38:00,34.1,30.9,29.73,South,180,12.0,19.0,88,0.00,,,0.15,16,Wunderground v.1.15,2013-05-12 10:38:00,
2013-05-12 06:42:00,34.1,30.9,29.73,South,178,12.0,24.0,88,0.00,,,0.15,16,Wunderground v.1.15,2013-05-12 10:42:00,
2013-05-12 06:45:00,34.0,30.5,29.73,South,190,13.0,24.0,87,0.00,,,0.15,14,Wunderground v.1.15,2013-05-12 10:45:00,
2013-05-12 06:46:00,34.0,30.5,29.73,South,178,13.0,24.0,87,0.00,,,0.15,14,Wunderground v.1.15,2013-05-12 10:46:00,
2013-05-12 06:48:00,34.0,30.5,29.73,South,187,13.0,24.0,87,0.00,,,0.15,14,Wunderground v.1.15,2013-05-12 10:48:00,
2013-05-12 06:50:00,34.0,30.5,29.74,South,187,13.0,13.0,87,0.00,,,0.15,14,Wunderground v.1.15,2013-05-12 10:50:00,
2013-05-12 06:51:00,34.0,30.5,29.73,SSW,207,12.0,19.0,87,0.00,,,0.15,14,Wunderground v.1.15,2013-05-12 10:51:00,
2013-05-12 06:53:00,34.0,30.5,29.73,South,173,11.0,19.0,87,0.00,,,0.15,12,Wunderground v.1.15,2013-05-12 10:53:00,
2013-05-12 06:54:00,34.0,30.5,29.73,South,177,11.0,19.0,87,0.00,,,0.15,12,Wunderground v.1.15,2013-05-12 10:54:00,
2013-05-12 06:56:00,34.0,30.5,29.74,South,182,11.0,19.0,87,0.00,,,0.15,14,Wunderground v.1.15,2013-05-12 10:56:00,
2013-05-12 06:57:00,34.0,30.5,29.74,SSW,201,10.0,19.0,87,0.00,,,0.15,12,Wunderground v.1.15,2013-05-12 10:57:00,
2013-05-12 07:00:00,34.0,30.5,29.74,South,178,11.0,19.0,87,0.00,,,0.15,14,Wunderground v.1.15,2013-05-12 11:00:00,
2013-05-12 07:02:00,34.0,30.5,29.74,SW,229,12.0,24.0,87,0.00,,,0.15,16,Wunderground v.1.15,2013-05-12 11:02:00,
2013-05-12 07:03:00,33.9,30.2,29.74,SSW,209,13.0,24.0,86,0.00,,,0.15,16,Wunderground v.1.15,2013-05-12 11:03:00,
2013-05-12 07:06:00,33.9,30.2,29.74,SSW,196,12.0,24.0,86,0.00,,,0.15,18,Wunderground v.1.15,2013-05-12 11:06:00,
2013-05-12 07:09:00,33.8,29.8,29.74,SSW,207,13.0,24.0,85,0.00,,,0.15,21,Wunderground v.1.15,2013-05-12 11:09:00,
2013-05-12 07:10:00,33.9,29.9,29.74,South,177,13.0,13.0,85,0.00,,,0.15,21,Wunderground v.1.15,2013-05-12 11:10:00,
2013-05-12 07:12:00,33.9,29.9,29.74,SW,214,12.0,19.0,85,0.00,,,0.15,25,Wunderground v.1.15,2013-05-12 11:12:00,
2013-05-12 07:13:00,33.8,29.8,29.74,South,178,12.0,19.0,85,0.00,,,0.15,25,Wunderground v.1.15,2013-05-12 11:13:00,
2013-05-12 07:16:00,33.8,29.8,29.75,SSW,203,12.0,19.0,85,0.00,,,0.15,28,Wunderground v.1.15,2013-05-12 11:16:00,
2013-05-12 07:18:00,33.8,29.8,29.74,SSW,197,12.0,19.0,85,0.00,,,0.15,28,Wunderground v.1.15,2013-05-12 11:18:00,
2013-05-12 07:24:00,33.8,29.8,29.75,SSW,194,11.0,19.0,85,0.00,,,0.15,30,Wunderground v.1.15,2013-05-12 11:24:00,
2013-05-12 07:26:00,33.8,29.8,29.75,SSW,196,11.0,19.0,85,0.00,,,0.15,30,Wunderground v.1.15,2013-05-12 11:26:00,
2013-05-12 07:29:00,33.9,29.9,29.75,South,184,11.0,19.0,85,0.00,,,0.15,32,Wunderground v.1.15,2013-05-12 11:29:00,
2013-05-12 07:30:00,33.9,29.9,29.75,SSW,212,11.0,11.0,85,0.00,,,0.15,30,Wunderground v.1.15,2013-05-12 11:30:00,
2013-05-12 07:33:00,33.9,29.9,29.75,SSW,198,11.0,20.0,85,0.00,,,0.16,26,Wunderground v.1.15,2013-05-12 11:33:00,
2013-05-12 07:36:00,34.0,30.0,29.75,South,186,12.0,20.0,85,0.00,,,0.16,33,Wunderground v.1.15,2013-05-12 11:36:00,
2013-05-12 07:38:00,34.1,30.1,29.75,South,187,12.0,20.0,85,0.00,,,0.16,30,Wunderground v.1.15,2013-05-12 11:38:00,
2013-05-12 07:39:00,34.1,30.1,29.75,South,181,11.0,20.0,85,0.00,,,0.16,40,Wunderground v.1.15,2013-05-12 11:39:00,
2013-05-12 07:40:00,34.1,30.1,29.75,SSW,209,12.0,12.0,85,0.00,,,0.16,40,Wunderground v.1.15,2013-05-12 11:40:00,
2013-05-12 07:42:00,34.1,30.1,29.75,South,188,13.0,19.0,85,0.00,,,0.16,37,Wunderground v.1.15,2013-05-12 11:42:00,
2013-05-12 07:45:00,34.1,30.1,29.75,SSW,198,13.0,19.0,85,0.00,,,0.16,47,Wunderground v.1.15,2013-05-12 11:45:00,
2013-05-12 07:47:00,34.1,29.8,29.75,SSW,209,13.0,19.0,84,0.00,,,0.16,54,Wunderground v.1.15,2013-05-12 11:47:00,
2013-05-12 07:50:00,34.1,29.8,29.75,SSW,196,13.0,19.0,84,0.00,,,0.16,54,Wunderground v.1.15,2013-05-12 11:50:00,
2013-05-12 07:51:00,34.1,29.8,29.75,SE,146,13.0,19.0,84,0.00,,,0.16,69,Wunderground v.1.15,2013-05-12 11:51:00,
2013-05-12 07:52:00,34.1,29.8,29.75,WSW,246,13.0,19.0,84,0.00,,,0.16,70,Wunderground v.1.15,2013-05-12 11:52:00,
2013-05-12 07:53:00,34.1,29.5,29.75,SSW,209,13.0,19.0,83,0.00,,,0.16,67,Wunderground v.1.15,2013-05-12 11:53:00,
2013-05-12 07:56:00,34.2,29.9,29.75,SSW,202,12.0,19.0,84,0.00,,,0.16,58,Wunderground v.1.15,2013-05-12 11:56:00,
2013-05-12 07:58:00,34.2,30.2,29.75,SSW,192,12.0,19.0,85,0.00,,,0.16,58,Wunderground v.1.15,2013-05-12 11:58:00,
2013-05-12 07:59:00,34.2,30.2,29.75,South,170,12.0,19.0,85,0.00,,,0.16,49,Wunderground v.1.15,2013-05-12 11:59:00,
2013-05-12 08:00:00,34.2,30.2,29.75,South,186,12.0,19.0,85,0.00,,,0.16,49,Wunderground v.1.15,2013-05-12 12:00:00,
2013-05-12 08:01:00,34.2,30.2,29.75,South,183,12.0,19.0,85,0.00,,,0.16,60,Wunderground v.1.15,2013-05-12 12:01:00,
2013-05-12 08:06:00,34.1,29.5,29.76,WNW,288,14.0,28.0,83,0.00,,,0.16,90,Wunderground v.1.15,2013-05-12 12:06:00,
2013-05-12 08:07:00,34.1,29.5,29.75,ESE,120,13.0,28.0,83,0.00,,,0.16,91,Wunderground v.1.15,2013-05-12 12:07:00,
2013-05-12 08:10:00,34.0,29.1,29.75,South,173,13.0,13.0,82,0.00,,,0.16,86,Wunderground v.1.15,2013-05-12 12:10:00,
2013-05-12 08:11:00,34.0,29.1,29.75,South,186,13.0,26.0,82,0.00,,,0.16,76,Wunderground v.1.15,2013-05-12 12:11:00,
2013-05-12 08:13:00,34.0,29.4,29.76,SW,217,14.0,26.0,83,0.00,,,0.16,81,Wunderground v.1.15,2013-05-12 12:13:00,
2013-05-12 08:15:00,34.0,29.1,29.75,SW,226,13.0,26.0,82,0.00,,,0.16,90,Wunderground v.1.15,2013-05-12 12:15:00,
2013-05-12 08:16:00,34.0,29.1,29.76,SSW,203,14.0,26.0,82,0.00,,,0.16,90,Wunderground v.1.15,2013-05-12 12:16:00,
2013-05-12 08:17:00,34.0,29.4,29.76,South,178,14.0,26.0,83,0.00,,,0.16,84,Wunderground v.1.15,2013-05-12 12:17:00,
2013-05-12 08:18:00,34.0,29.4,29.76,SSW,207,13.0,26.0,83,0.00,,,0.16,81,Wunderground v.1.15,2013-05-12 12:18:00,
2013-05-12 08:22:00,34.1,29.5,29.76,South,177,12.0,17.0,83,0.00,,,0.16,79,Wunderground v.1.15,2013-05-12 12:22:00,
2013-05-12 08:23:00,34.1,29.8,29.76,South,178,12.0,19.0,84,0.00,,,0.16,77,Wunderground v.1.15,2013-05-12 12:23:00,
2013-05-12 08:24:00,34.1,29.8,29.76,South,171,12.0,19.0,84,0.00,,,0.16,83,Wunderground v.1.15,2013-05-12 12:24:00,
2013-05-12 08:25:00,34.1,29.8,29.76,SSW,200,11.0,19.0,84,0.00,,,0.16,102,Wunderground v.1.15,2013-05-12 12:25:00,
2013-05-12 08:27:00,34.1,29.8,29.76,SSW,205,11.0,19.0,84,0.00,,,0.16,123,Wunderground v.1.15,2013-05-12 12:27:00,
2013-05-12 08:29:00,34.1,29.8,29.76,SSW,206,12.0,19.0,84,0.00,,,0.16,121,Wunderground v.1.15,2013-05-12 12:29:00,
2013-05-12 08:31:00,34.2,29.9,29.76,SW,217,12.0,19.0,84,0.00,,,0.16,135,Wunderground v.1.15,2013-05-12 12:31:00,
2013-05-12 08:32:00,34.2,29.9,29.76,South,173,12.0,19.0,84,0.00,,,0.16,135,Wunderground v.1.15,2013-05-12 12:32:00,
2013-05-12 08:35:00,34.2,29.9,29.76,South,175,12.0,19.0,84,0.00,,,0.16,137,Wunderground v.1.15,2013-05-12 12:35:00,
2013-05-12 08:37:00,34.2,29.9,29.76,South,190,11.0,19.0,84,0.00,,,0.16,130,Wunderground v.1.15,2013-05-12 12:37:00,
2013-05-12 08:38:00,34.2,29.9,29.76,South,178,11.0,19.0,84,0.00,,,0.16,134,Wunderground v.1.15,2013-05-12 12:38:00,
2013-05-12 08:39:00,34.2,29.9,29.76,South,180,11.0,19.0,84,0.00,,,0.16,134,Wunderground v.1.15,2013-05-12 12:39:00,
2013-05-12 08:43:00,34.3,30.3,29.76,South,185,11.0,19.0,85,0.00,,,0.16,113,Wunderground v.1.15,2013-05-12 12:43:00,
2013-05-12 08:44:00,34.3,30.3,29.76,SSW,196,12.0,19.0,85,0.00,,,0.16,118,Wunderground v.1.15,2013-05-12 12:44:00,
2013-05-12 08:46:00,34.3,30.3,29.76,South,184,12.0,19.0,85,0.00,,,0.16,116,Wunderground v.1.15,2013-05-12 12:46:00,
2013-05-12 08:48:00,34.3,30.3,29.76,SSW,213,11.0,19.0,85,0.00,,,0.16,116,Wunderground v.1.15,2013-05-12 12:48:00,
2013-05-12 08:49:00,34.3,30.0,29.76,SW,214,12.0,19.0,84,0.00,,,0.16,137,Wunderground v.1.15,2013-05-12 12:49:00,
2013-05-12 08:50:00,34.3,30.0,29.76,South,173,11.0,11.0,84,0.00,,,0.16,134,Wunderground v.1.15,2013-05-12 12:50:00,
2013-05-12 08:54:00,34.3,30.3,29.76,SSW,198,10.0,19.0,85,0.00,,,0.16,127,Wunderground v.1.15,2013-05-12 12:54:00,
2013-05-12 08:55:00,34.3,30.3,29.76,South,182,10.0,19.0,85,0.00,,,0.16,114,Wunderground v.1.15,2013-05-12 12:55:00,
2013-05-12 08:56:00,34.3,30.0,29.76,South,181,11.0,19.0,84,0.00,,,0.16,116,Wunderground v.1.15,2013-05-12 12:56:00,
2013-05-12 08:57:00,34.2,29.9,29.76,SSE,165,11.0,19.0,84,0.00,,,0.16,109,Wunderground v.1.15,2013-05-12 12:57:00,
2013-05-12 09:01:00,34.2,29.6,29.77,South,180,13.0,19.0,83,0.00,,,0.16,97,Wunderground v.1.15,2013-05-12 13:01:00,
2013-05-12 09:04:00,34.2,29.6,29.77,South,190,13.0,19.0,83,0.00,,,0.16,100,Wunderground v.1.15,2013-05-12 13:04:00,
2013-05-12 09:06:00,34.2,29.9,29.77,SW,220,13.0,19.0,84,0.00,,,0.16,100,Wunderground v.1.15,2013-05-12 13:06:00,
2013-05-12 09:08:00,34.1,29.8,29.77,SW,222,13.0,19.0,84,0.00,,,0.16,97,Wunderground v.1.15,2013-05-12 13:08:00,
2013-05-12 09:11:00,34.1,29.5,29.76,South,182,12.0,21.0,83,0.00,,,0.16,97,Wunderground v.1.15,2013-05-12 13:11:00,
2013-05-12 09:15:00,34.0,29.4,29.76,SSW,193,13.0,21.0,83,0.00,,,0.16,93,Wunderground v.1.15,2013-05-12 13:15:00,
2013-05-12 09:17:00,34.0,29.4,29.76,SSW,213,12.0,21.0,83,0.00,,,0.16,95,Wunderground v.1.15,2013-05-12 13:17:00,
2013-05-12 09:18:00,33.9,29.3,29.76,South,177,12.0,21.0,83,0.00,,,0.16,95,Wunderground v.1.15,2013-05-12 13:18:00,
2013-05-12 09:21:00,33.9,29.3,29.77,SSW,201,12.0,19.0,83,0.00,,,0.16,93,Wunderground v.1.15,2013-05-12 13:21:00,
2013-05-12 09:22:00,34.0,29.4,29.76,SSW,196,11.0,19.0,83,0.00,,,0.16,95,Wunderground v.1.15,2013-05-12 13:22:00,
2013-05-12 09:24:00,33.9,29.3,29.76,SW,224,11.0,19.0,83,0.00,,,0.16,91,Wunderground v.1.15,2013-05-12 13:24:00,
2013-05-12 09:25:00,33.9,29.0,29.76,SSE,165,11.0,19.0,82,0.00,,,0.16,91,Wunderground v.1.15,2013-05-12 13:25:00,
2013-05-12 09:28:00,33.8,28.9,29.76,South,178,11.0,19.0,82,0.00,,,0.16,91,Wunderground v.1.15,2013-05-12 13:28:00,
2013-05-12 09:29:00,33.8,28.9,29.76,SSW,207,11.0,19.0,82,0.00,,,0.16,91,Wunderground v.1.15,2013-05-12 13:29:00,
2013-05-12 09:30:00,33.8,29.2,29.76,South,183,11.0,11.0,83,0.00,,,0.16,86,Wunderground v.1.15,2013-05-12 13:30:00,
2013-05-12 09:31:00,33.8,29.2,29.77,SSE,168,11.0,17.0,83,0.00,,,0.16,86,Wunderground v.1.15,2013-05-12 13:31:00,
2013-05-12 09:36:00,33.8,29.2,29.77,SW,218,12.0,19.0,83,0.00,,,0.16,97,Wunderground v.1.15,2013-05-12 13:36:00,
2013-05-12 09:37:00,33.8,29.2,29.77,SSW,203,12.0,19.0,83,0.00,,,0.16,97,Wunderground v.1.15,2013-05-12 13:37:00,
2013-05-12 09:38:00,33.8,29.2,29.77,South,169,12.0,19.0,83,0.00,,,0.16,100,Wunderground v.1.15,2013-05-12 13:38:00,
2013-05-12 09:41:00,33.8,29.2,29.77,South,191,12.0,19.0,83,0.00,,,0.16,104,Wunderground v.1.15,2013-05-12 13:41:00,
2013-05-12 09:42:00,33.7,29.1,29.77,SW,217,11.0,19.0,83,0.00,,,0.16,109,Wunderground v.1.15,2013-05-12 13:42:00,
2013-05-12 09:44:00,33.6,28.7,29.77,SSW,199,13.0,24.0,82,0.00,,,0.17,109,Wunderground v.1.15,2013-05-12 13:44:00,
2013-05-12 09:47:00,33.6,28.7,29.77,SSW,203,13.0,24.0,82,0.00,,,0.17,116,Wunderground v.1.15,2013-05-12 13:47:00,
2013-05-12 09:49:00,33.5,28.6,29.77,SW,220,13.0,24.0,82,0.00,,,0.17,111,Wunderground v.1.15,2013-05-12 13:49:00,
2013-05-12 09:52:00,33.5,28.6,29.77,South,180,14.0,15.0,82,0.00,,,0.17,91,Wunderground v.1.15,2013-05-12 13:52:00,
2013-05-12 09:56:00,33.5,28.9,29.78,SSW,202,11.0,19.0,83,0.00,,,0.17,100,Wunderground v.1.15,2013-05-12 13:56:00,
2013-05-12 09:57:00,33.6,29.3,29.78,South,180,11.0,19.0,84,0.00,,,0.17,104,Wunderground v.1.15,2013-05-12 13:57:00,
2013-05-12 09:59:00,33.5,28.9,29.78,SSW,192,11.0,19.0,83,0.00,,,0.17,111,Wunderground v.1.15,2013-05-12 13:59:00,
2013-05-12 10:01:00,33.5,28.9,29.77,SSW,201,12.0,19.0,83,0.00,,,0.17,104,Wunderground v.1.15,2013-05-12 14:01:00,
2013-05-12 10:03:00,33.4,28.8,29.77,South,172,12.0,19.0,83,0.00,,,0.17,113,Wunderground v.1.15,2013-05-12 14:03:00,
2013-05-12 10:04:00,33.4,28.8,29.77,South,187,12.0,19.0,83,0.00,,,0.17,109,Wunderground v.1.15,2013-05-12 14:04:00,
2013-05-12 10:05:00,33.4,28.8,29.78,South,182,13.0,19.0,83,0.00,,,0.17,111,Wunderground v.1.15,2013-05-12 14:05:00,
2013-05-12 10:09:00,33.2,28.9,29.77,South,184,15.0,25.0,84,0.00,,,0.17,111,Wunderground v.1.15,2013-05-12 14:09:00,
2013-05-12 10:10:00,33.2,28.9,29.77,SSW,195,15.0,19.0,84,0.00,,,0.17,113,Wunderground v.1.15,2013-05-12 14:10:00,
2013-05-12 10:11:00,33.1,28.8,29.77,South,175,16.0,19.0,84,0.00,,,0.17,113,Wunderground v.1.15,2013-05-12 14:11:00,
2013-05-12 10:14:00,32.9,28.9,29.78,SE,127,16.0,27.0,85,0.00,,,0.17,114,Wunderground v.1.15,2013-05-12 14:14:00,
2013-05-12 10:15:00,32.8,29.1,29.78,SW,234,16.0,27.0,86,0.00,,,0.17,105,Wunderground v.1.15,2013-05-12 14:15:00,
2013-05-12 10:16:00,32.8,29.1,29.77,SSW,203,15.0,27.0,86,0.00,,,0.17,109,Wunderground v.1.15,2013-05-12 14:16:00,
2013-05-12 10:17:00,32.8,29.1,29.77,South,187,15.0,27.0,86,0.00,,,0.17,100,Wunderground v.1.15,2013-05-12 14:17:00,
2013-05-12 10:21:00,32.6,28.9,29.78,South,191,14.0,21.0,86,0.00,,,0.17,102,Wunderground v.1.15,2013-05-12 14:21:00,
2013-05-12 10:23:00,32.5,28.8,29.78,South,190,14.0,21.0,86,0.00,,,0.17,97,Wunderground v.1.15,2013-05-12 14:23:00,
2013-05-12 10:24:00,32.5,28.8,29.78,South,191,14.0,21.0,86,0.00,,,0.17,95,Wunderground v.1.15,2013-05-12 14:24:00,
2013-05-12 10:25:00,32.5,28.8,29.78,SSW,201,14.0,21.0,86,0.00,,,0.17,100,Wunderground v.1.15,2013-05-12 14:25:00,
2013-05-12 10:28:00,32.4,29.0,29.78,South,179,14.0,21.0,87,0.00,,,0.17,98,Wunderground v.1.15,2013-05-12 14:28:00,
2013-05-12 10:29:00,32.4,29.0,29.78,South,188,14.0,21.0,87,0.00,,,0.17,100,Wunderground v.1.15,2013-05-12 14:29:00,
2013-05-12 10:30:00,32.3,28.9,29.78,SSW,196,14.0,14.0,87,0.00,,,0.17,100,Wunderground v.1.15,2013-05-12 14:30:00,
2013-05-12 10:34:00,32.3,29.1,29.78,South,190,12.0,19.0,88,0.00,,,0.17,98,Wunderground v.1.15,2013-05-12 14:34:00,
2013-05-12 10:36:00,32.3,29.1,29.78,SSW,201,12.0,19.0,88,0.00,,,0.17,95,Wunderground v.1.15,2013-05-12 14:36:00,
2013-05-12 10:41:00,32.4,29.5,29.78,SSW,192,10.0,14.0,89,0.00,,,0.17,91,Wunderground v.1.15,2013-05-12 14:41:00,
2013-05-12 10:42:00,32.4,29.5,29.78,SSE,157,10.0,19.0,89,0.00,,,0.17,84,Wunderground v.1.15,2013-05-12 14:42:00,
2013-05-12 10:43:00,32.4,29.5,29.78,SSW,200,10.0,19.0,89,0.00,,,0.17,77,Wunderground v.1.15,2013-05-12 14:43:00,
2013-05-12 10:46:00,32.3,29.1,29.78,South,188,11.0,19.0,88,0.00,,,0.17,83,Wunderground v.1.15,2013-05-12 14:46:00,
2013-05-12 10:49:00,32.0,29.1,29.79,SSW,192,12.0,20.0,89,0.00,,,0.17,76,Wunderground v.1.15,2013-05-12 14:49:00,
2013-05-12 10:50:00,32.0,29.1,29.78,SSW,210,12.0,19.0,89,0.00,,,0.17,76,Wunderground v.1.15,2013-05-12 14:50:00,
2013-05-12 10:51:00,32.0,29.1,29.78,SSW,213,13.0,19.0,89,0.00,,,0.17,76,Wunderground v.1.15,2013-05-12 14:51:00,
2013-05-12 10:52:00,31.9,29.0,29.79,SSW,202,13.0,19.0,89,0.00,,,0.17,72,Wunderground v.1.15,2013-05-12 14:52:00,
2013-05-12 10:54:00,31.7,28.8,29.79,South,190,13.0,19.0,89,0.00,,,0.17,77,Wunderground v.1.15,2013-05-12 14:54:00,
2013-05-12 10:56:00,31.6,28.7,29.79,SSW,193,14.0,19.0,89,0.00,,,0.17,74,Wunderground v.1.15,2013-05-12 14:56:00,
2013-05-12 10:57:00,31.6,28.7,29.79,South,185,14.0,19.0,89,0.00,,,0.17,76,Wunderground v.1.15,2013-05-12 14:57:00,
2013-05-12 10:59:00,31.5,28.9,29.79,South,189,14.0,19.0,90,0.00,,,0.17,79,Wunderground v.1.15,2013-05-12 14:59:00,
2013-05-12 11:00:00,31.4,28.8,29.79,SSW,205,15.0,15.0,90,0.00,,,0.17,86,Wunderground v.1.15,2013-05-12 15:00:00,
2013-05-12 11:02:00,31.4,28.8,29.79,SSW,197,15.0,17.0,90,0.00,,,0.17,90,Wunderground v.1.15,2013-05-12 15:02:00,
2013-05-12 11:05:00,31.3,29.0,29.79,South,169,15.0,24.0,91,0.00,,,0.17,98,Wunderground v.1.15,2013-05-12 15:05:00,
2013-05-12 11:06:00,31.2,28.9,29.79,South,182,14.0,24.0,91,0.00,,,0.17,100,Wunderground v.1.15,2013-05-12 15:06:00,
2013-05-12 11:08:00,31.2,28.9,29.78,SSW,205,14.0,24.0,91,0.00,,,0.17,100,Wunderground v.1.15,2013-05-12 15:08:00,
2013-05-12 11:10:00,31.2,28.9,29.79,SSW,209,14.0,14.0,91,0.00,,,0.17,107,Wunderground v.1.15,2013-05-12 15:10:00,
2013-05-12 11:12:00,31.1,28.8,29.79,South,187,13.0,19.0,91,0.00,,,0.17,114,Wunderground v.1.15,2013-05-12 15:12:00,
2013-05-12 11:13:00,31.1,28.8,29.79,SSW,197,12.0,19.0,91,0.00,,,0.17,113,Wunderground v.1.15,2013-05-12 15:13:00,
2013-05-12 11:14:00,31.1,29.0,29.79,South,186,12.0,19.0,92,0.00,,,0.17,116,Wunderground v.1.15,2013-05-12 15:14:00,
2013-05-12 11:20:00,31.0,28.9,29.79,SSW,197,13.0,13.0,92,0.00,,,0.17,113,Wunderground v.1.15,2013-05-12 15:20:00,
2013-05-12 11:21:00,30.9,28.9,29.80,SSW,205,13.0,19.0,92,0.00,,,0.17,114,Wunderground v.1.15,2013-05-12 15:21:00,
2013-05-12 11:24:00,30.9,28.9,29.80,South,181,13.0,21.0,92,0.00,,,0.17,102,Wunderground v.1.15,2013-05-12 15:24:00,
2013-05-12 11:26:00,30.9,29.1,29.80,SSW,194,13.0,21.0,93,0.00,,,0.17,98,Wunderground v.1.15,2013-05-12 15:26:00,
2013-05-12 11:29:00,30.8,29.0,29.80,SSW,198,13.0,21.0,93,0.00,,,0.17,93,Wunderground v.1.15,2013-05-12 15:29:00,
2013-05-12 11:30:00,30.8,29.0,29.80,South,186,13.0,19.0,93,0.00,,,0.17,86,Wunderground v.1.15,2013-05-12 15:30:00,
2013-05-12 11:33:00,30.8,29.0,29.80,South,169,13.0,19.0,93,0.00,,,0.17,86,Wunderground v.1.15,2013-05-12 15:33:00,
2013-05-12 11:34:00,30.8,29.0,29.80,South,176,13.0,19.0,93,0.00,,,0.17,84,Wunderground v.1.15,2013-05-12 15:34:00,
2013-05-12 11:35:00,30.8,29.0,29.80,South,191,13.0,19.0,93,0.00,,,0.17,86,Wunderground v.1.15,2013-05-12 15:35:00,
2013-05-12 11:39:00,30.8,29.0,29.80,South,183,13.0,19.0,93,0.00,,,0.17,74,Wunderground v.1.15,2013-05-12 15:39:00,
2013-05-12 11:40:00,30.8,29.0,29.80,South,189,12.0,19.0,93,0.00,,,0.17,76,Wunderground v.1.15,2013-05-12 15:40:00,
2013-05-12 11:41:00,30.8,29.0,29.80,South,183,12.0,19.0,93,0.00,,,0.17,72,Wunderground v.1.15,2013-05-12 15:41:00,
2013-05-12 11:42:00,30.8,29.0,29.80,South,188,11.0,19.0,93,0.00,,,0.17,79,Wunderground v.1.15,2013-05-12 15:42:00,
2013-05-12 11:43:00,30.8,29.3,29.80,South,179,12.0,19.0,94,0.00,,,0.17,90,Wunderground v.1.15,2013-05-12 15:43:00,
2013-05-12 11:46:00,30.7,29.2,29.81,SW,224,12.0,19.0,94,0.00,,,0.17,84,Wunderground v.1.15,2013-05-12 15:46:00,
2013-05-12 11:48:00,30.8,29.3,29.81,SSE,161,11.0,20.0,94,0.00,,,0.17,86,Wunderground v.1.15,2013-05-12 15:48:00,
2013-05-12 11:51:00,30.7,29.2,29.81,South,182,13.0,22.0,94,0.00,,,0.17,93,Wunderground v.1.15,2013-05-12 15:51:00,
2013-05-12 11:52:00,30.6,29.1,29.81,South,178,13.0,22.0,94,0.00,,,0.17,95,Wunderground v.1.15,2013-05-12 15:52:00,
2013-05-12 11:56:00,30.6,29.1,29.81,SSE,162,14.0,22.0,94,0.00,,,0.17,97,Wunderground v.1.15,2013-05-12 15:56:00,
2013-05-12 11:57:00,30.6,29.1,29.81,SSW,213,14.0,22.0,94,0.00,,,0.17,104,Wunderground v.1.15,2013-05-12 15:57:00,
2013-05-12 12:02:00,30.5,29.0,29.81,South,174,14.0,19.0,94,0.00,,,0.17,107,Wunderground v.1.15,2013-05-12 16:02:00,
2013-05-12 12:03:00,30.5,29.0,29.81,SSW,203,13.0,19.0,94,0.00,,,0.17,104,Wunderground v.1.15,2013-05-12 16:03:00,
2013-05-12 12:05:00,30.5,29.0,29.81,South,178,13.0,21.0,94,0.00,,,0.17,105,Wunderground v.1.15,2013-05-12 16:05:00,
2013-05-12 12:07:00,30.6,29.1,29.81,South,190,14.0,21.0,94,0.00,,,0.17,118,Wunderground v.1.15,2013-05-12 16:07:00,
2013-05-12 12:09:00,30.6,29.1,29.81,South,180,14.0,30.0,94,0.00,,,0.17,118,Wunderground v.1.15,2013-05-12 16:09:00,
2013-05-12 12:11:00,30.5,29.0,29.81,SSW,205,15.0,17.0,94,0.00,,,0.17,116,Wunderground v.1.15,2013-05-12 16:11:00,
2013-05-12 12:13:00,30.5,29.2,29.81,ESE,114,16.0,20.0,95,0.00,,,0.17,118,Wunderground v.1.15,2013-05-12 16:13:00,
2013-05-12 12:16:00,30.5,29.2,29.81,SSW,195,16.0,20.0,95,0.00,,,0.17,127,Wunderground v.1.15,2013-05-12 16:16:00,
2013-05-12 12:17:00,30.5,29.2,29.81,SW,217,16.0,20.0,95,0.00,,,0.17,128,Wunderground v.1.15,2013-05-12 16:17:00,
2013-05-12 12:18:00,30.6,29.3,29.81,South,184,16.0,20.0,95,0.00,,,0.17,130,Wunderground v.1.15,2013-05-12 16:18:00,
2013-05-12 12:19:00,30.6,29.3,29.81,South,182,16.0,20.0,95,0.00,,,0.17,130,Wunderground v.1.15,2013-05-12 16:19:00,
2013-05-12 12:23:00,30.6,29.3,29.81,SSW,196,15.0,19.0,95,0.00,,,0.17,148,Wunderground v.1.15,2013-05-12 16:23:00,
2013-05-12 12:24:00,30.6,29.3,29.81,South,180,15.0,28.0,95,0.00,,,0.17,156,Wunderground v.1.15,2013-05-12 16:24:00,
2013-05-12 12:26:00,30.6,29.3,29.82,ENE,58,15.0,28.0,95,0.00,,,0.17,174,Wunderground v.1.15,2013-05-12 16:26:00,
2013-05-12 12:28:00,30.6,29.3,29.82,South,175,16.0,28.0,95,0.00,,,0.17,185,Wunderground v.1.15,2013-05-12 16:28:00,
2013-05-12 12:31:00,30.6,29.3,29.82,South,182,17.0,19.0,95,0.00,,,0.17,186,Wunderground v.1.15,2013-05-12 16:31:00,
2013-05-12 12:32:00,30.6,29.3,29.81,South,175,17.0,28.0,95,0.00,,,0.17,186,Wunderground v.1.15,2013-05-12 16:32:00,
2013-05-12 12:35:00,30.6,29.3,29.81,South,186,18.0,28.0,95,0.00,,,0.17,183,Wunderground v.1.15,2013-05-12 16:35:00,
2013-05-12 12:37:00,30.7,29.4,29.81,South,186,17.0,28.0,95,0.00,,,0.17,183,Wunderground v.1.15,2013-05-12 16:37:00,
2013-05-12 12:38:00,30.7,29.7,29.81,SW,217,17.0,28.0,96,0.00,,,0.17,183,Wunderground v.1.15,2013-05-12 16:38:00,
2013-05-12 12:41:00,30.8,29.8,29.82,SSW,205,16.0,16.0,96,0.00,,,0.17,178,Wunderground v.1.15,2013-05-12 16:41:00,
2013-05-12 12:42:00,30.8,29.8,29.82,South,185,16.0,21.0,96,0.00,,,0.17,181,Wunderground v.1.15,2013-05-12 16:42:00,
2013-05-12 12:44:00,30.8,29.8,29.82,SSW,198,14.0,21.0,96,0.00,,,0.17,199,Wunderground v.1.15,2013-05-12 16:44:00,
2013-05-12 12:46:00,30.9,29.9,29.82,South,174,14.0,23.0,96,0.00,,,0.17,192,Wunderground v.1.15,2013-05-12 16:46:00,
2013-05-12 12:47:00,30.9,29.9,29.82,SSW,194,15.0,23.0,96,0.00,,,0.17,179,Wunderground v.1.15,2013-05-12 16:47:00,
2013-05-12 12:50:00,31.0,30.0,29.82,SSW,212,16.0,16.0,96,0.00,,,0.17,209,Wunderground v.1.15,2013-05-12 16:50:00,
2013-05-12 12:52:00,31.0,30.0,29.82,South,180,15.0,22.0,96,0.00,,,0.17,202,Wunderground v.1.15,2013-05-12 16:52:00,
2013-05-12 12:56:00,31.1,30.1,29.82,SSW,194,15.0,22.0,96,0.00,,,0.17,200,Wunderground v.1.15,2013-05-12 16:56:00,
2013-05-12 12:57:00,31.1,30.1,29.83,SSW,198,14.0,22.0,96,0.00,,,0.17,221,Wunderground v.1.15,2013-05-12 16:57:00,
2013-05-12 12:58:00,31.1,30.1,29.83,SSW,193,15.0,26.0,96,0.00,,,0.17,211,Wunderground v.1.15,2013-05-12 16:58:00,
2013-05-12 12:59:00,31.0,30.0,29.83,SSE,166,16.0,26.0,96,0.00,,,0.17,192,Wunderground v.1.15,2013-05-12 16:59:00,
2013-05-12 13:02:00,31.0,30.0,29.83,South,182,16.0,19.0,96,0.00,,,0.17,197,Wunderground v.1.15,2013-05-12 17:02:00,
2013-05-12 13:04:00,31.0,30.0,29.83,SSE,160,16.0,19.0,96,0.00,,,0.17,216,Wunderground v.1.15,2013-05-12 17:04:00,
2013-05-12 13:06:00,31.1,30.1,29.83,WSW,245,16.0,19.0,96,0.00,,,0.17,232,Wunderground v.1.15,2013-05-12 17:06:00,
2013-05-12 13:11:00,31.2,30.2,29.83,South,191,15.0,19.0,96,0.00,,,0.17,244,Wunderground v.1.15,2013-05-12 17:11:00,
2013-05-12 13:12:00,31.2,30.2,29.84,SW,221,15.0,19.0,96,0.00,,,0.17,237,Wunderground v.1.15,2013-05-12 17:12:00,
2013-05-12 13:14:00,31.3,30.3,29.84,South,188,15.0,19.0,96,0.00,,,0.17,229,Wunderground v.1.15,2013-05-12 17:14:00,
2013-05-12 13:15:00,31.3,30.3,29.84,SW,225,15.0,19.0,96,0.00,,,0.17,241,Wunderground v.1.15,2013-05-12 17:15:00,
2013-05-12 13:17:00,31.4,30.4,29.84,SSW,203,14.0,21.0,96,0.00,,,0.17,218,Wunderground v.1.15,2013-05-12 17:17:00,
2013-05-12 13:19:00,31.5,30.5,29.84,South,173,13.0,21.0,96,0.00,,,0.17,214,Wunderground v.1.15,2013-05-12 17:19:00,
2013-05-12 13:21:00,31.5,30.5,29.84,South,176,13.0,19.0,96,0.00,,,0.17,250,Wunderground v.1.15,2013-05-12 17:21:00,
2013-05-12 13:23:00,31.5,30.5,29.84,South,176,13.0,19.0,96,0.00,,,0.17,225,Wunderground v.1.15,2013-05-12 17:23:00,
2013-05-12 13:24:00,31.5,30.5,29.84,SSW,205,13.0,19.0,96,0.00,,,0.17,260,Wunderground v.1.15,2013-05-12 17:24:00,
2013-05-12 13:25:00,31.5,30.5,29.84,SSW,210,12.0,19.0,96,0.00,,,0.18,251,Wunderground v.1.15,2013-05-12 17:25:00,
2013-05-12 13:27:00,31.6,30.6,29.84,South,186,12.0,19.0,96,0.00,,,0.18,302,Wunderground v.1.15,2013-05-12 17:27:00,
2013-05-12 13:29:00,31.6,30.6,29.84,SSW,202,12.0,19.0,96,0.00,,,0.18,306,Wunderground v.1.15,2013-05-12 17:29:00,
2013-05-12 13:30:00,31.7,30.7,29.84,South,176,12.0,12.0,96,0.00,,,0.18,316,Wunderground v.1.15,2013-05-12 17:30:00,
2013-05-12 13:32:00,31.7,30.7,29.85,SW,223,12.0,19.0,96,0.00,,,0.18,330,Wunderground v.1.15,2013-05-12 17:32:00,
2013-05-12 13:36:00,31.8,30.8,29.85,South,190,13.0,20.0,96,0.00,,,0.18,329,Wunderground v.1.15,2013-05-12 17:36:00,
2013-05-12 13:38:00,31.9,30.9,29.85,South,182,12.0,20.0,96,0.00,,,0.18,353,Wunderground v.1.15,2013-05-12 17:38:00,
2013-05-12 13:41:00,32.0,31.0,29.85,South,175,12.0,13.0,96,0.00,,,0.18,290,Wunderground v.1.15,2013-05-12 17:41:00,
2013-05-12 13:42:00,32.1,31.1,29.85,SSW,208,13.0,19.0,96,0.00,,,0.18,295,Wunderground v.1.15,2013-05-12 17:42:00,
2013-05-12 13:43:00,32.1,31.1,29.85,SSW,211,13.0,19.0,96,0.00,,,0.18,313,Wunderground v.1.15,2013-05-12 17:43:00,
2013-05-12 13:45:00,32.1,31.1,29.85,South,180,13.0,19.0,96,0.00,,,0.18,295,Wunderground v.1.15,2013-05-12 17:45:00,
2013-05-12 13:47:00,32.1,31.1,29.85,SSW,207,13.0,19.0,96,0.00,,,0.18,237,Wunderground v.1.15,2013-05-12 17:47:00,
2013-05-12 13:49:00,32.1,31.1,29.85,SSW,200,13.0,19.0,96,0.00,,,0.18,216,Wunderground v.1.15,2013-05-12 17:49:00,
2013-05-12 13:50:00,32.1,31.1,29.85,SSW,192,13.0,13.0,96,0.00,,,0.18,216,Wunderground v.1.15,2013-05-12 17:50:00,
2013-05-12 13:53:00,32.1,31.1,29.85,South,178,12.0,22.0,96,0.00,,,0.18,290,Wunderground v.1.15,2013-05-12 17:53:00,
2013-05-12 13:55:00,32.1,31.1,29.86,SSW,209,13.0,22.0,96,0.00,,,0.18,199,Wunderground v.1.15,2013-05-12 17:55:00,
2013-05-12 13:58:00,32.2,31.2,29.85,SSW,213,13.0,22.0,96,0.00,,,0.18,269,Wunderground v.1.15,2013-05-12 17:58:00,
2013-05-12 14:00:00,32.3,31.3,29.86,SSW,202,14.0,14.0,96,0.00,,,0.18,248,Wunderground v.1.15,2013-05-12 18:00:00,
2013-05-12 14:01:00,32.3,31.3,29.86,SSW,196,14.0,16.0,96,0.00,,,0.18,188,Wunderground v.1.15,2013-05-12 18:01:00,
2013-05-12 14:02:00,32.3,31.3,29.86,SSW,193,14.0,19.0,96,0.00,,,0.18,190,Wunderground v.1.15,2013-05-12 18:02:00,
2013-05-12 14:04:00,32.3,31.3,29.86,SSW,197,13.0,19.0,96,0.00,,,0.18,206,Wunderground v.1.15,2013-05-12 18:04:00,
2013-05-12 14:05:00,32.3,31.3,29.86,South,181,12.0,19.0,96,0.00,,,0.18,220,Wunderground v.1.15,2013-05-12 18:05:00,
2013-05-12 14:08:00,32.4,31.4,29.86,SSW,201,12.0,19.0,96,0.00,,,0.18,265,Wunderground v.1.15,2013-05-12 18:08:00,
2013-05-12 14:09:00,32.3,31.3,29.86,SSW,202,13.0,19.0,96,0.00,,,0.18,272,Wunderground v.1.15,2013-05-12 18:09:00,
2013-05-12 14:11:00,32.3,31.3,29.86,SW,236,13.0,19.0,96,0.00,,,0.18,221,Wunderground v.1.15,2013-05-12 18:11:00,
2013-05-12 14:12:00,32.3,31.3,29.86,SSW,213,13.0,19.0,96,0.00,,,0.18,221,Wunderground v.1.15,2013-05-12 18:12:00,
2013-05-12 14:15:00,32.2,31.2,29.86,South,189,15.0,19.0,96,0.00,,,0.18,229,Wunderground v.1.15,2013-05-12 18:15:00,
2013-05-12 14:20:00,32.3,31.3,29.87,South,190,14.0,19.0,96,0.00,,,0.18,396,Wunderground v.1.15,2013-05-12 18:20:00,
2013-05-12 14:21:00,32.4,31.4,29.87,SSW,195,14.0,19.0,96,0.00,,,0.18,390,Wunderground v.1.15,2013-05-12 18:21:00,
2013-05-12 14:22:00,32.4,31.4,29.87,SSW,192,13.0,19.0,96,0.00,,,0.18,390,Wunderground v.1.15,2013-05-12 18:22:00,
2013-05-12 14:24:00,32.5,31.5,29.87,SSW,209,13.0,19.0,96,0.00,,,0.18,309,Wunderground v.1.15,2013-05-12 18:24:00,
2013-05-12 14:26:00,32.5,31.5,29.87,SSW,209,13.0,19.0,96,0.00,,,0.18,380,Wunderground v.1.15,2013-05-12 18:26:00,
2013-05-12 14:27:00,32.6,31.6,29.87,SSW,209,12.0,19.0,96,0.00,,,0.18,410,Wunderground v.1.15,2013-05-12 18:27:00,
2013-05-12 14:30:00,32.7,31.7,29.87,SW,234,12.0,19.0,96,0.00,,,0.18,292,Wunderground v.1.15,2013-05-12 18:30:00,
2013-05-12 14:31:00,32.7,31.7,29.88,SSW,199,12.0,19.0,96,0.00,,,0.18,413,Wunderground v.1.15,2013-05-12 18:31:00,
2013-05-12 14:33:00,32.8,31.8,29.87,SSE,168,11.0,19.0,96,0.00,,,0.18,348,Wunderground v.1.15,2013-05-12 18:33:00,
2013-05-12 14:34:00,32.9,31.9,29.87,South,190,11.0,20.0,96,0.00,,,0.18,348,Wunderground v.1.15,2013-05-12 18:34:00,
2013-05-12 14:35:00,32.9,31.9,29.87,South,182,11.0,20.0,96,0.00,,,0.18,360,Wunderground v.1.15,2013-05-12 18:35:00,
2013-05-12 14:36:00,32.9,31.9,29.87,SSW,194,11.0,20.0,96,0.00,,,0.18,325,Wunderground v.1.15,2013-05-12 18:36:00,
2013-05-12 14:37:00,32.9,31.9,29.88,South,186,11.0,20.0,96,0.00,,,0.18,301,Wunderground v.1.15,2013-05-12 18:37:00,
2013-05-12 14:41:00,33.1,32.1,29.88,SSW,209,12.0,15.0,96,0.00,,,0.18,404,Wunderground v.1.15,2013-05-12 18:41:00,
2013-05-12 14:42:00,33.1,32.1,29.87,SW,215,12.0,15.0,96,0.00,,,0.18,404,Wunderground v.1.15,2013-05-12 18:42:00,
2013-05-12 14:43:00,33.1,32.1,29.88,South,182,12.0,15.0,96,0.00,,,0.18,236,Wunderground v.1.15,2013-05-12 18:43:00,
2013-05-12 14:44:00,33.1,32.1,29.88,SW,219,12.0,15.0,96,0.00,,,0.18,239,Wunderground v.1.15,2013-05-12 18:44:00,
2013-05-12 14:48:00,32.9,31.9,29.88,South,186,13.0,15.0,96,0.00,,,0.18,332,Wunderground v.1.15,2013-05-12 18:48:00,
2013-05-12 14:49:00,32.9,31.9,29.88,South,186,13.0,15.0,96,0.00,,,0.18,418,Wunderground v.1.15,2013-05-12 18:49:00,
2013-05-12 14:52:00,32.9,31.9,29.88,South,182,13.0,14.0,96,0.00,,,0.18,223,Wunderground v.1.15,2013-05-12 18:52:00,
2013-05-12 14:53:00,33.0,32.0,29.88,SSW,198,13.0,20.0,96,0.00,,,0.18,265,Wunderground v.1.15,2013-05-12 18:53:00,
2013-05-12 14:55:00,33.0,32.0,29.88,SW,225,13.0,20.0,96,0.00,,,0.19,181,Wunderground v.1.15,2013-05-12 18:55:00,
2013-05-12 14:57:00,32.9,31.9,29.89,SSW,207,14.0,25.0,96,0.00,,,0.19,183,Wunderground v.1.15,2013-05-12 18:57:00,
2013-05-12 14:58:00,32.8,31.8,29.89,South,186,15.0,25.0,96,0.00,,,0.19,237,Wunderground v.1.15,2013-05-12 18:58:00,
2013-05-12 15:02:00,32.8,31.8,29.89,WSW,248,15.0,15.0,96,0.00,,,0.19,179,Wunderground v.1.15,2013-05-12 19:02:00,
2013-05-12 15:04:00,32.8,31.8,29.90,SSW,209,15.0,15.0,96,0.00,,,0.19,169,Wunderground v.1.15,2013-05-12 19:04:00,
2013-05-12 15:05:00,32.8,31.8,29.89,SSW,192,15.0,23.0,96,0.00,,,0.19,162,Wunderground v.1.15,2013-05-12 19:05:00,
2013-05-12 15:07:00,32.8,31.8,29.89,SSW,207,13.0,23.0,96,0.00,,,0.19,165,Wunderground v.1.15,2013-05-12 19:07:00,
2013-05-12 15:10:00,32.8,31.8,29.90,SSW,195,13.0,13.0,96,0.00,,,0.19,123,Wunderground v.1.15,2013-05-12 19:10:00,
2013-05-12 15:11:00,32.8,31.8,29.90,SW,223,13.0,13.0,96,0.00,,,0.19,137,Wunderground v.1.15,2013-05-12 19:11:00,
2013-05-12 15:13:00,32.8,31.8,29.90,South,184,13.0,19.0,96,0.00,,,0.19,167,Wunderground v.1.15,2013-05-12 19:13:00,
2013-05-12 15:19:00,32.8,31.8,29.90,South,188,13.0,23.0,96,0.00,,,0.19,227,Wunderground v.1.15,2013-05-12 19:19:00,
2013-05-12 15:20:00,32.8,32.0,29.90,South,182,13.0,13.0,97,0.00,,,0.19,204,Wunderground v.1.15,2013-05-12 19:20:00,
2013-05-12 15:22:00,32.8,32.0,29.90,South,184,13.0,13.0,97,0.00,,,0.19,167,Wunderground v.1.15,2013-05-12 19:22:00,
2013-05-12 15:23:00,32.8,31.8,29.90,South,187,13.0,13.0,96,0.00,,,0.19,169,Wunderground v.1.15,2013-05-12 19:23:00,
2013-05-12 15:24:00,32.8,31.8,29.90,SSW,199,12.0,14.0,96,0.00,,,0.19,162,Wunderground v.1.15,2013-05-12 19:24:00,
2013-05-12 15:27:00,32.9,31.9,29.90,SSW,199,12.0,23.0,96,0.00,,,0.19,163,Wunderground v.1.15,2013-05-12 19:27:00,
2013-05-12 15:30:00,32.8,32.0,29.91,SSW,196,12.0,12.0,97,0.00,,,0.19,163,Wunderground v.1.15,2013-05-12 19:30:00,
2013-05-12 15:33:00,32.8,32.0,29.91,SSW,196,12.0,25.0,97,0.00,,,0.19,162,Wunderground v.1.15,2013-05-12 19:33:00,
2013-05-12 15:36:00,32.8,32.0,29.91,SSW,201,13.0,25.0,97,0.00,,,0.19,141,Wunderground v.1.15,2013-05-12 19:36:00,
2013-05-12 15:38:00,32.8,32.0,29.91,SW,220,13.0,25.0,97,0.00,,,0.19,176,Wunderground v.1.15,2013-05-12 19:38:00,
2013-05-12 15:39:00,32.8,32.0,29.91,South,188,12.0,25.0,97,0.00,,,0.19,179,Wunderground v.1.15,2013-05-12 19:39:00,
2013-05-12 15:41:00,32.8,32.0,29.91,SSW,196,12.0,25.0,97,0.00,,,0.19,141,Wunderground v.1.15,2013-05-12 19:41:00,
2013-05-12 15:42:00,32.9,32.1,29.91,South,182,12.0,25.0,97,0.00,,,0.19,132,Wunderground v.1.15,2013-05-12 19:42:00,
2013-05-12 15:44:00,32.9,32.1,29.92,SSW,213,11.0,25.0,97,0.00,,,0.19,171,Wunderground v.1.15,2013-05-12 19:44:00,
2013-05-12 15:47:00,32.9,32.1,29.91,SSW,194,10.0,25.0,97,0.00,,,0.19,163,Wunderground v.1.15,2013-05-12 19:47:00,
2013-05-12 15:49:00,32.9,32.1,29.91,SSW,195,10.0,25.0,97,0.00,,,0.19,223,Wunderground v.1.15,2013-05-12 19:49:00,
2013-05-12 15:51:00,32.9,32.1,29.91,South,188,9.0,25.0,97,0.00,,,0.19,197,Wunderground v.1.15,2013-05-12 19:51:00,
2013-05-12 15:52:00,32.9,32.1,29.92,South,176,9.0,25.0,97,0.00,,,0.19,197,Wunderground v.1.15,2013-05-12 19:52:00,
2013-05-12 15:57:00,33.0,32.2,29.92,SSW,199,9.0,25.0,97,0.00,,,0.19,151,Wunderground v.1.15,2013-05-12 19:57:00,
2013-05-12 15:58:00,33.0,32.2,29.91,South,182,9.0,25.0,97,0.00,,,0.19,169,Wunderground v.1.15,2013-05-12 19:58:00,
2013-05-12 15:59:00,33.0,32.2,29.92,South,189,9.0,25.0,97,0.00,,,0.19,172,Wunderground v.1.15,2013-05-12 19:59:00,
2013-05-12 16:01:00,33.0,32.2,29.92,South,189,10.0,25.0,97,0.00,,,0.19,172,Wunderground v.1.15,2013-05-12 20:01:00,
2013-05-12 16:03:00,33.0,32.2,29.92,SSE,165,10.0,25.0,97,0.00,,,0.19,163,Wunderground v.1.15,2013-05-12 20:03:00,
2013-05-12 16:05:00,33.1,32.3,29.92,South,178,10.0,25.0,97,0.00,,,0.19,192,Wunderground v.1.15,2013-05-12 20:05:00,
2013-05-12 16:09:00,33.2,32.4,29.92,South,186,10.0,25.0,97,0.00,,,0.20,241,Wunderground v.1.15,2013-05-12 20:09:00,
2013-05-12 16:10:00,33.2,32.4,29.92,SSW,202,10.0,25.0,97,0.00,,,0.20,176,Wunderground v.1.15,2013-05-12 20:10:00,
2013-05-12 16:11:00,33.3,32.5,29.91,SSW,200,10.0,25.0,97,0.00,,,0.20,192,Wunderground v.1.15,2013-05-12 20:11:00,
2013-05-12 16:12:00,33.3,32.5,29.92,SSE,150,10.0,25.0,97,0.00,,,0.20,192,Wunderground v.1.15,2013-05-12 20:12:00,
2013-05-12 16:16:00,33.4,32.6,29.91,SW,214,11.0,25.0,97,0.00,,,0.20,343,Wunderground v.1.15,2013-05-12 20:16:00,
2013-05-12 16:18:00,33.6,32.8,29.92,South,190,11.0,25.0,97,0.00,,,0.20,306,Wunderground v.1.15,2013-05-12 20:18:00,
2013-05-12 16:19:00,33.6,32.8,29.92,WSW,245,11.0,25.0,97,0.00,,,0.20,346,Wunderground v.1.15,2013-05-12 20:19:00,
2013-05-12 16:20:00,33.7,32.9,29.91,SSW,192,11.0,25.0,97,0.00,,,0.20,271,Wunderground v.1.15,2013-05-12 20:20:00,
2013-05-12 16:22:00,33.8,33.0,29.92,South,189,11.0,25.0,97,0.00,,,0.20,388,Wunderground v.1.15,2013-05-12 20:22:00,
2013-05-12 16:25:00,34.0,33.2,29.92,SW,226,13.0,25.0,97,0.00,,,0.20,436,Wunderground v.1.15,2013-05-12 20:25:00,
2013-05-12 16:26:00,34.0,33.2,29.92,South,173,13.0,25.0,97,0.00,,,0.20,436,Wunderground v.1.15,2013-05-12 20:26:00,
2013-05-12 16:27:00,34.0,33.2,29.92,SSW,196,13.0,25.0,97,0.00,,,0.20,436,Wunderground v.1.15,2013-05-12 20:27:00,
2013-05-12 16:30:00,34.2,33.4,29.92,SSW,192,14.0,25.0,97,0.00,,,0.20,301,Wunderground v.1.15,2013-05-12 20:30:00,
2013-05-12 16:31:00,34.3,33.5,29.92,South,174,14.0,25.0,97,0.00,,,0.20,285,Wunderground v.1.15,2013-05-12 20:31:00,
2013-05-12 16:32:00,34.3,33.5,29.92,WSW,237,14.0,25.0,97,0.00,,,0.20,285,Wunderground v.1.15,2013-05-12 20:32:00,
2013-05-12 16:35:00,34.3,33.5,29.92,South,187,12.0,25.0,97,0.00,,,0.20,237,Wunderground v.1.15,2013-05-12 20:35:00,
2013-05-12 16:36:00,34.4,33.6,29.92,South,186,12.0,25.0,97,0.00,,,0.20,294,Wunderground v.1.15,2013-05-12 20:36:00,
2013-05-12 16:39:00,34.4,33.6,29.93,SW,234,11.0,25.0,97,0.00,,,0.20,237,Wunderground v.1.15,2013-05-12 20:39:00,
2013-05-12 16:40:00,34.5,33.7,29.93,SSW,202,10.0,25.0,97,0.00,,,0.20,204,Wunderground v.1.15,2013-05-12 20:40:00,
2013-05-12 16:41:00,34.5,33.7,29.92,South,169,9.0,25.0,97,0.00,,,0.20,153,Wunderground v.1.15,2013-05-12 20:41:00,
2013-05-12 16:44:00,34.6,33.8,29.93,SSW,192,9.0,25.0,97,0.00,,,0.20,127,Wunderground v.1.15,2013-05-12 20:44:00,
2013-05-12 16:47:00,34.5,33.7,29.93,South,184,8.0,25.0,97,0.00,,,0.20,199,Wunderground v.1.15,2013-05-12 20:47:00,
2013-05-12 16:49:00,34.5,33.7,29.93,South,190,8.0,25.0,97,0.00,,,0.20,188,Wunderground v.1.15,2013-05-12 20:49:00,
2013-05-12 16:50:00,34.5,33.7,29.93,South,179,9.0,25.0,97,0.00,,,0.20,239,Wunderground v.1.15,2013-05-12 20:50:00,
2013-05-12 16:51:00,34.5,33.7,29.93,North,360,9.0,25.0,97,0.00,,,0.20,234,Wunderground v.1.15,2013-05-12 20:51:00,
2013-05-12 16:55:00,34.5,33.7,29.93,SW,217,9.0,25.0,97,0.00,,,0.20,160,Wunderground v.1.15,2013-05-12 20:55:00,
2013-05-12 16:56:00,34.5,33.7,29.93,SSW,201,9.0,25.0,97,0.00,,,0.20,178,Wunderground v.1.15,2013-05-12 20:56:00,
2013-05-12 16:57:00,34.5,33.7,29.93,South,178,9.0,25.0,97,0.00,,,0.20,171,Wunderground v.1.15,2013-05-12 20:57:00,
2013-05-12 16:58:00,34.5,33.7,29.93,SSW,198,9.0,25.0,97,0.00,,,0.20,179,Wunderground v.1.15,2013-05-12 20:58:00,
2013-05-12 16:59:00,34.5,33.7,29.93,SSW,211,10.0,25.0,97,0.00,,,0.20,174,Wunderground v.1.15,2013-05-12 20:59:00,
2013-05-12 17:02:00,34.6,33.8,29.93,SW,219,10.0,25.0,97,0.00,,,0.20,116,Wunderground v.1.15,2013-05-12 21:02:00,
2013-05-12 17:03:00,34.6,33.8,29.93,SSW,194,9.0,25.0,97,0.00,,,0.20,98,Wunderground v.1.15,2013-05-12 21:03:00,
2013-05-12 17:05:00,34.5,33.7,29.94,SW,223,10.0,25.0,97,0.00,,,0.20,113,Wunderground v.1.15,2013-05-12 21:05:00,
2013-05-12 17:06:00,34.5,33.7,29.94,SSE,161,10.0,25.0,97,0.00,,,0.20,125,Wunderground v.1.15,2013-05-12 21:06:00,
2013-05-12 17:09:00,34.4,33.6,29.94,South,173,11.0,25.0,97,0.00,,,0.20,116,Wunderground v.1.15,2013-05-12 21:09:00,
2013-05-12 17:11:00,34.3,33.5,29.94,South,180,12.0,25.0,97,0.00,,,0.20,127,Wunderground v.1.15,2013-05-12 21:11:00,
2013-05-12 17:12:00,34.3,33.5,29.94,South,172,12.0,25.0,97,0.00,,,0.20,148,Wunderground v.1.15,2013-05-12 21:12:00,
2013-05-12 17:15:00,34.2,33.4,29.94,South,190,12.0,25.0,97,0.00,,,0.20,144,Wunderground v.1.15,2013-05-12 21:15:00,
2013-05-12 17:16:00,34.2,33.4,29.94,South,180,11.0,25.0,97,0.00,,,0.20,128,Wunderground v.1.15,2013-05-12 21:16:00,
2013-05-12 17:18:00,34.2,33.4,29.94,South,188,10.0,25.0,97,0.00,,,0.20,135,Wunderground v.1.15,2013-05-12 21:18:00,
2013-05-12 17:19:00,34.2,33.4,29.95,SW,216,10.0,25.0,97,0.00,,,0.20,135,Wunderground v.1.15,2013-05-12 21:19:00,
2013-05-12 17:22:00,34.3,33.5,29.95,SSW,207,8.0,25.0,97,0.00,,,0.20,158,Wunderground v.1.15,2013-05-12 21:22:00,
2013-05-12 17:23:00,34.3,33.5,29.95,SSW,195,8.0,25.0,97,0.00,,,0.20,156,Wunderground v.1.15,2013-05-12 21:23:00,
2013-05-12 17:25:00,34.4,33.6,29.94,SSW,207,7.0,25.0,97,0.00,,,0.20,141,Wunderground v.1.15,2013-05-12 21:25:00,
2013-05-12 17:26:00,34.4,33.6,29.94,South,183,7.0,25.0,97,0.00,,,0.20,127,Wunderground v.1.15,2013-05-12 21:26:00,
2013-05-12 17:28:00,34.5,33.7,29.95,South,185,8.0,25.0,97,0.00,,,0.20,130,Wunderground v.1.15,2013-05-12 21:28:00,
2013-05-12 17:31:00,34.4,33.6,29.95,SSW,205,9.0,25.0,97,0.00,,,0.20,127,Wunderground v.1.15,2013-05-12 21:31:00,
2013-05-12 17:33:00,34.4,33.6,29.95,South,179,9.0,25.0,97,0.00,,,0.20,137,Wunderground v.1.15,2013-05-12 21:33:00,
2013-05-12 17:34:00,34.4,33.6,29.95,South,182,9.0,25.0,97,0.00,,,0.20,137,Wunderground v.1.15,2013-05-12 21:34:00,
2013-05-12 17:35:00,34.4,33.6,29.95,South,175,10.0,25.0,97,0.00,,,0.20,141,Wunderground v.1.15,2013-05-12 21:35:00,
2013-05-12 17:38:00,34.4,33.6,29.95,SSW,202,10.0,25.0,97,0.00,,,0.20,148,Wunderground v.1.15,2013-05-12 21:38:00,
2013-05-12 17:39:00,34.5,33.7,29.95,South,176,9.0,25.0,97,0.00,,,0.20,148,Wunderground v.1.15,2013-05-12 21:39:00,
2013-05-12 17:40:00,34.5,33.7,29.95,South,187,9.0,25.0,97,0.00,,,0.20,144,Wunderground v.1.15,2013-05-12 21:40:00,
2013-05-12 17:44:00,34.5,33.7,29.95,SSE,151,9.0,25.0,97,0.00,,,0.20,148,Wunderground v.1.15,2013-05-12 21:44:00,
2013-05-12 17:47:00,34.5,33.7,29.95,SSW,204,9.0,25.0,97,0.00,,,0.20,144,Wunderground v.1.15,2013-05-12 21:47:00,
2013-05-12 17:48:00,34.5,33.7,29.96,SSW,201,9.0,25.0,97,0.00,,,0.20,142,Wunderground v.1.15,2013-05-12 21:48:00,
2013-05-12 17:49:00,34.5,33.7,29.96,SW,225,9.0,25.0,97,0.00,,,0.20,137,Wunderground v.1.15,2013-05-12 21:49:00,
2013-05-12 17:50:00,34.5,33.7,29.96,SSW,211,9.0,25.0,97,0.00,,,0.20,137,Wunderground v.1.15,2013-05-12 21:50:00,
2013-05-12 17:54:00,34.6,33.8,29.96,SSW,193,9.0,25.0,97,0.00,,,0.20,128,Wunderground v.1.15,2013-05-12 21:54:00,
2013-05-12 17:55:00,34.6,33.8,29.96,SSW,202,9.0,25.0,97,0.00,,,0.20,123,Wunderground v.1.15,2013-05-12 21:55:00,
2013-05-12 17:56:00,34.6,33.8,29.96,SSW,195,9.0,25.0,97,0.00,,,0.20,120,Wunderground v.1.15,2013-05-12 21:56:00,
2013-05-12 18:00:00,34.5,33.7,29.96,SSE,157,9.0,9.0,97,0.00,,,0.20,125,Wunderground v.1.15,2013-05-12 22:00:00,
2013-05-12 18:01:00,34.5,33.7,29.96,South,184,9.0,25.0,97,0.00,,,0.20,125,Wunderground v.1.15,2013-05-12 22:01:00,
2013-05-12 18:02:00,34.5,33.7,29.96,SSW,203,9.0,25.0,97,0.00,,,0.20,116,Wunderground v.1.15,2013-05-12 22:02:00,
2013-05-12 18:05:00,34.5,33.7,29.97,SSW,197,9.0,25.0,97,0.00,,,0.20,113,Wunderground v.1.15,2013-05-12 22:05:00,
2013-05-12 18:07:00,34.5,33.7,29.97,South,186,8.0,25.0,97,0.00,,,0.20,105,Wunderground v.1.15,2013-05-12 22:07:00,
2013-05-12 18:08:00,34.6,33.8,29.97,SSW,199,9.0,25.0,97,0.00,,,0.20,104,Wunderground v.1.15,2013-05-12 22:08:00,
2013-05-12 18:11:00,34.6,33.8,29.97,SSW,212,9.0,25.0,97,0.00,,,0.20,98,Wunderground v.1.15,2013-05-12 22:11:00,
2013-05-12 18:13:00,34.5,33.7,29.97,SSW,200,9.0,25.0,97,0.00,,,0.20,95,Wunderground v.1.15,2013-05-12 22:13:00,
2013-05-12 18:14:00,34.5,33.7,29.97,SSW,201,9.0,25.0,97,0.00,,,0.20,97,Wunderground v.1.15,2013-05-12 22:14:00,
2013-05-12 18:17:00,34.5,33.5,29.97,South,185,9.0,25.0,96,0.00,,,0.20,104,Wunderground v.1.15,2013-05-12 22:17:00,
2013-05-12 18:19:00,34.5,33.5,29.97,SSW,196,9.0,25.0,96,0.00,,,0.20,104,Wunderground v.1.15,2013-05-12 22:19:00,
2013-05-12 18:20:00,34.5,33.5,29.97,South,183,10.0,25.0,96,0.00,,,0.20,102,Wunderground v.1.15,2013-05-12 22:20:00,
2013-05-12 18:21:00,34.5,33.5,29.97,SSW,202,11.0,25.0,96,0.00,,,0.20,100,Wunderground v.1.15,2013-05-12 22:21:00,
2013-05-12 18:24:00,34.6,33.6,29.98,South,178,12.0,25.0,96,0.00,,,0.20,102,Wunderground v.1.15,2013-05-12 22:24:00,
2013-05-12 18:25:00,34.6,33.6,29.98,SSW,204,12.0,25.0,96,0.00,,,0.20,107,Wunderground v.1.15,2013-05-12 22:25:00,
2013-05-12 18:27:00,34.7,33.7,29.98,South,180,13.0,25.0,96,0.00,,,0.20,111,Wunderground v.1.15,2013-05-12 22:27:00,
2013-05-12 18:29:00,34.7,33.7,29.98,SSW,200,13.0,25.0,96,0.00,,,0.20,104,Wunderground v.1.15,2013-05-12 22:29:00,
2013-05-12 18:30:00,34.7,33.7,29.98,South,186,13.0,25.0,96,0.00,,,0.20,104,Wunderground v.1.15,2013-05-12 22:30:00,
2013-05-12 18:31:00,34.7,33.7,29.98,South,187,13.0,25.0,96,0.00,,,0.20,105,Wunderground v.1.15,2013-05-12 22:31:00,
2013-05-12 18:35:00,34.7,33.4,29.98,SSW,213,13.0,25.0,95,0.00,,,0.20,102,Wunderground v.1.15,2013-05-12 22:35:00,
2013-05-12 18:36:00,34.7,33.4,29.98,NNE,13,12.0,25.0,95,0.00,,,0.20,100,Wunderground v.1.15,2013-05-12 22:36:00,
2013-05-12 18:37:00,34.7,33.4,29.98,South,180,12.0,25.0,95,0.00,,,0.20,98,Wunderground v.1.15,2013-05-12 22:37:00,
2013-05-12 18:38:00,34.7,33.4,29.98,SSW,211,12.0,25.0,95,0.00,,,0.20,97,Wunderground v.1.15,2013-05-12 22:38:00,
2013-05-12 18:42:00,34.5,33.0,29.98,South,183,11.0,25.0,94,0.00,,,0.20,97,Wunderground v.1.15,2013-05-12 22:42:00,
2013-05-12 18:43:00,34.5,33.0,29.98,South,188,11.0,25.0,94,0.00,,,0.20,90,Wunderground v.1.15,2013-05-12 22:43:00,
2013-05-12 18:44:00,34.4,32.9,29.98,SSW,207,11.0,25.0,94,0.00,,,0.20,95,Wunderground v.1.15,2013-05-12 22:44:00,
2013-05-12 18:46:00,34.5,33.0,29.98,South,175,12.0,25.0,94,0.00,,,0.20,105,Wunderground v.1.15,2013-05-12 22:46:00,
2013-05-12 18:48:00,34.5,33.0,29.98,South,187,11.0,25.0,94,0.00,,,0.20,109,Wunderground v.1.15,2013-05-12 22:48:00,
2013-05-12 18:49:00,34.5,33.0,29.98,South,181,11.0,25.0,94,0.00,,,0.20,109,Wunderground v.1.15,2013-05-12 22:49:00,
2013-05-12 18:51:00,34.5,33.0,29.98,South,184,10.0,25.0,94,0.00,,,0.20,114,Wunderground v.1.15,2013-05-12 22:51:00,
2013-05-12 18:53:00,34.6,33.3,29.98,South,177,10.0,25.0,95,0.00,,,0.20,125,Wunderground v.1.15,2013-05-12 22:53:00,
2013-05-12 18:55:00,34.7,33.4,29.98,SSW,196,10.0,25.0,95,0.00,,,0.20,130,Wunderground v.1.15,2013-05-12 22:55:00,
2013-05-12 18:56:00,34.7,33.4,29.98,SSW,198,10.0,25.0,95,0.00,,,0.20,135,Wunderground v.1.15,2013-05-12 22:56:00,
2013-05-12 18:57:00,34.7,33.2,29.98,South,190,10.0,25.0,94,0.00,,,0.20,137,Wunderground v.1.15,2013-05-12 22:57:00,
2013-05-12 19:01:00,34.9,33.6,29.98,SSW,209,10.0,25.0,95,0.00,,,0.20,158,Wunderground v.1.15,2013-05-12 23:01:00,
2013-05-12 19:02:00,34.9,33.3,29.98,SSW,196,11.0,25.0,94,0.00,,,0.20,165,Wunderground v.1.15,2013-05-12 23:02:00,
2013-05-12 19:05:00,35.1,33.5,29.98,SSW,195,11.0,25.0,94,0.00,,,0.20,169,Wunderground v.1.15,2013-05-12 23:05:00,
2013-05-12 19:09:00,35.2,33.4,29.98,South,178,11.0,25.0,93,0.00,,,0.20,158,Wunderground v.1.15,2013-05-12 23:09:00,
2013-05-12 19:10:00,35.2,33.4,29.98,SSW,205,11.0,11.0,93,0.00,,,0.20,151,Wunderground v.1.15,2013-05-12 23:10:00,
2013-05-12 19:11:00,35.3,33.5,29.99,South,189,11.0,19.0,93,0.00,,,0.20,142,Wunderground v.1.15,2013-05-12 23:11:00,
2013-05-12 19:12:00,35.3,33.5,29.98,South,182,11.0,25.0,93,0.00,,,0.20,139,Wunderground v.1.15,2013-05-12 23:12:00,
2013-05-12 19:15:00,35.5,33.4,29.98,SSW,207,12.0,25.0,92,0.00,,,0.20,139,Wunderground v.1.15,2013-05-12 23:15:00,
2013-05-12 19:17:00,35.6,33.5,29.98,South,182,11.0,25.0,92,0.00,,,0.20,128,Wunderground v.1.15,2013-05-12 23:17:00,
2013-05-12 19:18:00,35.6,33.5,29.98,SSW,192,11.0,25.0,92,0.00,,,0.20,127,Wunderground v.1.15,2013-05-12 23:18:00,
2013-05-12 19:19:00,35.7,33.3,29.98,South,180,12.0,25.0,91,0.00,,,0.20,116,Wunderground v.1.15,2013-05-12 23:19:00,
2013-05-12 19:22:00,35.8,33.4,29.98,SW,214,12.0,25.0,91,0.00,,,0.20,113,Wunderground v.1.15,2013-05-12 23:22:00,
2013-05-12 19:23:00,35.8,33.2,29.99,SSW,203,12.0,25.0,90,0.00,,,0.20,113,Wunderground v.1.15,2013-05-12 23:23:00,
2013-05-12 19:27:00,36.0,33.4,29.98,South,183,11.0,25.0,90,0.00,,,0.20,97,Wunderground v.1.15,2013-05-12 23:27:00,
2013-05-12 19:28:00,36.0,33.4,29.99,South,186,11.0,25.0,90,0.00,,,0.20,98,Wunderground v.1.15,2013-05-12 23:28:00,
2013-05-12 19:29:00,36.0,33.1,29.98,South,186,11.0,25.0,89,0.00,,,0.20,98,Wunderground v.1.15,2013-05-12 23:29:00,
2013-05-12 19:32:00,36.0,33.1,29.99,SW,236,11.0,25.0,89,0.00,,,0.20,107,Wunderground v.1.15,2013-05-12 23:32:00,
2013-05-12 19:33:00,36.0,32.8,29.98,SW,214,11.0,25.0,88,0.00,,,0.20,109,Wunderground v.1.15,2013-05-12 23:33:00,
2013-05-12 19:34:00,36.0,32.8,29.99,SSW,199,12.0,25.0,88,0.00,,,0.20,111,Wunderground v.1.15,2013-05-12 23:34:00,
2013-05-12 19:38:00,36.1,32.6,29.98,SSW,201,13.0,25.0,87,0.00,,,0.20,113,Wunderground v.1.15,2013-05-12 23:38:00,
2013-05-12 19:39:00,36.2,32.7,29.99,SSE,161,12.0,25.0,87,0.00,,,0.20,113,Wunderground v.1.15,2013-05-12 23:39:00,
2013-05-12 19:40:00,36.1,32.6,29.99,South,191,12.0,25.0,87,0.00,,,0.20,102,Wunderground v.1.15,2013-05-12 23:40:00,
2013-05-12 19:41:00,36.1,32.6,29.99,South,182,12.0,25.0,87,0.00,,,0.20,98,Wunderground v.1.15,2013-05-12 23:41:00,
2013-05-12 19:42:00,36.1,32.3,29.99,SW,229,12.0,25.0,86,0.00,,,0.20,97,Wunderground v.1.15,2013-05-12 23:42:00,
2013-05-12 19:46:00,36.1,32.3,29.99,South,185,12.0,25.0,86,0.00,,,0.20,90,Wunderground v.1.15,2013-05-12 23:46:00,
2013-05-12 19:48:00,36.2,32.4,29.99,SSW,202,12.0,25.0,86,0.00,,,0.20,86,Wunderground v.1.15,2013-05-12 23:48:00,
2013-05-12 19:50:00,36.1,32.0,29.99,South,190,13.0,13.0,85,0.00,,,0.20,83,Wunderground v.1.15,2013-05-12 23:50:00,
2013-05-12 19:55:00,36.3,32.2,29.99,South,178,13.0,25.0,85,0.00,,,0.20,77,Wunderground v.1.15,2013-05-12 23:55:00,
2013-05-12 19:56:00,36.3,32.2,29.99,SSW,200,13.0,25.0,85,0.00,,,0.20,76,Wunderground v.1.15,2013-05-12 23:56:00,
2013-05-12 19:57:00,36.3,32.2,30.00,SSW,204,13.0,25.0,85,0.00,,,0.20,72,Wunderground v.1.15,2013-05-12 23:57:00,
2013-05-12 20:00:00,36.2,31.8,30.00,SW,234,12.0,12.0,84,0.00,,,0.20,69,Wunderground v.1.15,2013-05-13 00:00:00,
2013-05-12 20:01:00,36.3,32.2,30.00,South,179,11.0,16.0,85,0.00,,,0.20,67,Wunderground v.1.15,2013-05-13 00:01:00,
2013-05-12 20:04:00,36.3,31.9,29.99,South,175,11.0,25.0,84,0.00,,,0.20,54,Wunderground v.1.15,2013-05-13 00:04:00,
2013-05-12 20:05:00,36.3,31.9,29.99,South,184,11.0,25.0,84,0.00,,,0.20,53,Wunderground v.1.15,2013-05-13 00:05:00,
2013-05-12 20:07:00,36.4,32.0,29.99,South,189,11.0,25.0,84,0.00,,,0.20,51,Wunderground v.1.15,2013-05-13 00:07:00,
2013-05-12 20:08:00,36.4,32.0,30.00,South,182,11.0,25.0,84,0.00,,,0.20,49,Wunderground v.1.15,2013-05-13 00:08:00,
2013-05-12 20:09:00,36.4,32.0,30.00,SSW,200,12.0,25.0,84,0.00,,,0.20,46,Wunderground v.1.15,2013-05-13 00:09:00,
2013-05-12 20:11:00,36.4,32.0,30.00,SSW,198,12.0,25.0,84,0.00,,,0.20,42,Wunderground v.1.15,2013-05-13 00:11:00,
2013-05-12 20:13:00,36.4,32.0,29.99,South,185,12.0,25.0,84,0.00,,,0.20,40,Wunderground v.1.15,2013-05-13 00:13:00,
2013-05-12 20:16:00,36.4,32.0,30.00,South,189,12.0,25.0,84,0.00,,,0.20,33,Wunderground v.1.15,2013-05-13 00:16:00,
2013-05-12 20:17:00,36.4,32.3,30.00,South,184,12.0,25.0,85,0.00,,,0.20,30,Wunderground v.1.15,2013-05-13 00:17:00,
2013-05-12 20:19:00,36.3,31.9,29.99,SSW,194,12.0,25.0,84,0.00,,,0.20,25,Wunderground v.1.15,2013-05-13 00:19:00,
2013-05-12 20:22:00,36.3,31.6,30.00,South,178,12.0,25.0,83,0.00,,,0.20,21,Wunderground v.1.15,2013-05-13 00:22:00,
2013-05-12 20:23:00,36.3,31.6,29.99,South,188,12.0,25.0,83,0.00,,,0.20,19,Wunderground v.1.15,2013-05-13 00:23:00,
2013-05-12 20:25:00,36.2,31.5,29.99,South,181,12.0,25.0,83,0.00,,,0.20,18,Wunderground v.1.15,2013-05-13 00:25:00,
2013-05-12 20:26:00,36.2,31.5,30.00,South,182,11.0,25.0,83,0.00,,,0.20,18,Wunderground v.1.15,2013-05-13 00:26:00,
2013-05-12 20:28:00,36.3,31.6,29.99,SSW,201,10.0,25.0,83,0.00,,,0.20,16,Wunderground v.1.15,2013-05-13 00:28:00,
2013-05-12 20:30:00,36.3,31.6,30.00,South,181,9.0,25.0,83,0.00,,,0.20,14,Wunderground v.1.15,2013-05-13 00:30:00,
2013-05-12 20:32:00,36.3,31.6,29.99,South,188,9.0,25.0,83,0.00,,,0.20,14,Wunderground v.1.15,2013-05-13 00:32:00,
2013-05-12 20:33:00,36.3,31.6,29.99,SSW,201,9.0,25.0,83,0.00,,,0.20,14,Wunderground v.1.15,2013-05-13 00:33:00,
2013-05-12 20:34:00,36.3,31.6,30.00,South,188,9.0,25.0,83,0.00,,,0.20,14,Wunderground v.1.15,2013-05-13 00:34:00,
2013-05-12 20:36:00,36.4,32.0,30.00,SSW,192,8.0,25.0,84,0.00,,,0.20,14,Wunderground v.1.15,2013-05-13 00:36:00,
2013-05-12 20:40:00,36.4,32.0,29.99,South,170,8.0,25.0,84,0.00,,,0.20,11,Wunderground v.1.15,2013-05-13 00:40:00,
2013-05-12 20:41:00,36.4,32.0,30.00,SSW,198,7.0,25.0,84,0.00,,,0.20,9,Wunderground v.1.15,2013-05-13 00:41:00,
2013-05-12 20:43:00,36.4,32.0,30.00,South,184,6.0,25.0,84,0.00,,,0.20,7,Wunderground v.1.15,2013-05-13 00:43:00,
2013-05-12 20:46:00,36.4,32.0,30.00,South,185,7.0,25.0,84,0.00,,,0.20,5,Wunderground v.1.15,2013-05-13 00:46:00,
2013-05-12 20:47:00,36.4,32.0,30.00,WSW,258,7.0,25.0,84,0.00,,,0.20,5,Wunderground v.1.15,2013-05-13 00:47:00,
2013-05-12 20:49:00,36.4,32.3,30.00,SSW,193,8.0,25.0,85,0.00,,,0.20,5,Wunderground v.1.15,2013-05-13 00:49:00,
2013-05-12 20:52:00,36.3,32.2,30.00,South,186,8.0,25.0,85,0.00,,,0.20,0,Wunderground v.1.15,2013-05-13 00:52:00,
2013-05-12 20:54:00,36.3,32.2,30.00,South,187,9.0,25.0,85,0.00,,,0.20,0,Wunderground v.1.15,2013-05-13 00:54:00,
2013-05-12 20:56:00,36.2,32.1,30.00,South,190,8.0,25.0,85,0.00,,,0.20,0,Wunderground v.1.15,2013-05-13 00:56:00,
2013-05-12 21:00:00,36.2,32.1,30.00,SW,214,8.0,25.0,85,0.00,,,0.20,0,Wunderground v.1.15,2013-05-13 01:00:00,
2013-05-12 21:01:00,36.2,32.1,30.00,South,190,8.0,25.0,85,0.00,,,0.20,0,Wunderground v.1.15,2013-05-13 01:01:00,
2013-05-12 21:02:00,36.2,32.1,30.00,SSW,205,8.0,25.0,85,0.00,,,0.20,0,Wunderground v.1.15,2013-05-13 01:02:00,
2013-05-12 21:03:00,36.2,32.1,30.00,South,184,8.0,25.0,85,0.00,,,0.20,0,Wunderground v.1.15,2013-05-13 01:03:00,
2013-05-12 21:05:00,36.2,32.4,30.00,SSW,194,7.0,25.0,86,0.00,,,0.20,0,Wunderground v.1.15,2013-05-13 01:05:00,
2013-05-12 21:09:00,36.2,32.1,30.00,SSW,194,8.0,25.0,85,0.00,,,0.20,0,Wunderground v.1.15,2013-05-13 01:09:00,
2013-05-12 21:12:00,36.2,32.1,30.00,SSW,195,8.0,25.0,85,0.00,,,0.20,0,Wunderground v.1.15,2013-05-13 01:12:00,
2013-05-12 21:13:00,36.2,32.1,30.00,South,173,8.0,25.0,85,0.00,,,0.20,0,Wunderground v.1.15,2013-05-13 01:13:00,
2013-05-12 21:14:00,36.2,32.1,30.00,SSW,192,8.0,25.0,85,0.00,,,0.20,0,Wunderground v.1.15,2013-05-13 01:14:00,
2013-05-12 21:18:00,36.2,32.1,30.00,SSW,194,8.0,25.0,85,0.00,,,0.20,0,Wunderground v.1.15,2013-05-13 01:18:00,
2013-05-12 21:22:00,36.2,32.1,30.00,South,186,8.0,25.0,85,0.00,,,0.20,0,Wunderground v.1.15,2013-05-13 01:22:00,
2013-05-12 21:23:00,36.2,32.1,30.00,South,185,8.0,25.0,85,0.00,,,0.20,0,Wunderground v.1.15,2013-05-13 01:23:00,
2013-05-12 21:24:00,36.2,32.1,30.00,SSW,211,8.0,25.0,85,0.00,,,0.20,0,Wunderground v.1.15,2013-05-13 01:24:00,
2013-05-12 21:28:00,36.2,31.8,30.00,SSW,195,8.0,25.0,84,0.00,,,0.20,0,Wunderground v.1.15,2013-05-13 01:28:00,
2013-05-12 21:29:00,36.2,31.8,30.00,South,186,8.0,25.0,84,0.00,,,0.20,0,Wunderground v.1.15,2013-05-13 01:29:00,
2013-05-12 21:30:00,36.2,31.8,30.00,South,189,8.0,8.0,84,0.00,,,0.20,0,Wunderground v.1.15,2013-05-13 01:30:00,
2013-05-12 21:32:00,36.2,32.1,30.00,South,191,8.0,25.0,85,0.00,,,0.20,0,Wunderground v.1.15,2013-05-13 01:32:00,
2013-05-12 21:38:00,36.2,32.1,30.00,South,179,8.0,25.0,85,0.00,,,0.20,0,Wunderground v.1.15,2013-05-13 01:38:00,
2013-05-12 21:40:00,36.2,32.1,30.00,South,182,8.0,25.0,85,0.00,,,0.20,0,Wunderground v.1.15,2013-05-13 01:40:00,
2013-05-12 21:41:00,36.2,32.1,30.01,South,190,9.0,25.0,85,0.00,,,0.20,0,Wunderground v.1.15,2013-05-13 01:41:00,
2013-05-12 21:43:00,36.2,32.1,30.01,SSW,203,9.0,25.0,85,0.00,,,0.20,0,Wunderground v.1.15,2013-05-13 01:43:00,
2013-05-12 21:44:00,36.2,32.1,30.01,South,190,9.0,25.0,85,0.00,,,0.20,0,Wunderground v.1.15,2013-05-13 01:44:00,
2013-05-12 21:45:00,36.2,32.1,30.01,South,189,8.0,25.0,85,0.00,,,0.20,0,Wunderground v.1.15,2013-05-13 01:45:00,
2013-05-12 21:48:00,36.2,32.1,30.01,South,177,8.0,25.0,85,0.00,,,0.20,0,Wunderground v.1.15,2013-05-13 01:48:00,
2013-05-12 21:49:00,36.2,32.1,30.01,South,188,8.0,25.0,85,0.00,,,0.20,0,Wunderground v.1.15,2013-05-13 01:49:00,
2013-05-12 21:51:00,36.1,31.7,30.00,SSW,204,7.0,25.0,84,0.00,,,0.20,0,Wunderground v.1.15,2013-05-13 01:51:00,
2013-05-12 21:53:00,36.2,32.1,30.00,SSW,193,7.0,25.0,85,0.00,,,0.20,0,Wunderground v.1.15,2013-05-13 01:53:00,
2013-05-12 21:54:00,36.2,32.1,30.01,South,178,7.0,25.0,85,0.00,,,0.20,0,Wunderground v.1.15,2013-05-13 01:54:00,
2013-05-12 21:55:00,36.2,32.1,30.00,SSW,205,7.0,25.0,85,0.00,,,0.20,0,Wunderground v.1.15,2013-05-13 01:55:00,
2013-05-12 21:57:00,36.2,32.1,30.00,South,184,7.0,25.0,85,0.00,,,0.20,0,Wunderground v.1.15,2013-05-13 01:57:00,
2013-05-12 22:00:00,36.2,32.1,30.01,NNE,28,7.0,7.0,85,0.00,,,0.20,0,Wunderground v.1.15,2013-05-13 02:00:00,
2013-05-12 22:01:00,36.2,32.1,30.01,SSW,192,7.0,10.0,85,0.00,,,0.20,0,Wunderground v.1.15,2013-05-13 02:01:00,
2013-05-12 22:02:00,36.2,32.1,30.01,SSW,192,8.0,25.0,85,0.00,,,0.20,0,Wunderground v.1.15,2013-05-13 02:02:00,
2013-05-12 22:03:00,36.3,32.2,30.01,South,176,8.0,25.0,85,0.00,,,0.20,0,Wunderground v.1.15,2013-05-13 02:03:00,
2013-05-12 22:04:00,36.3,32.2,30.01,South,184,7.0,25.0,85,0.00,,,0.20,0,Wunderground v.1.15,2013-05-13 02:04:00,
2013-05-12 22:06:00,36.3,31.9,30.01,South,177,8.0,25.0,84,0.00,,,0.20,0,Wunderground v.1.15,2013-05-13 02:06:00,
2013-05-12 22:09:00,36.3,31.9,30.01,South,188,8.0,25.0,84,0.00,,,0.20,0,Wunderground v.1.15,2013-05-13 02:09:00,
2013-05-12 22:10:00,36.3,31.9,30.01,South,182,8.0,25.0,84,0.00,,,0.20,0,Wunderground v.1.15,2013-05-13 02:10:00,
2013-05-12 22:11:00,36.3,31.9,30.01,SSW,200,9.0,25.0,84,0.00,,,0.20,0,Wunderground v.1.15,2013-05-13 02:11:00,
2013-05-12 22:12:00,36.3,31.9,30.01,South,189,9.0,25.0,84,0.00,,,0.20,0,Wunderground v.1.15,2013-05-13 02:12:00,
2013-05-12 22:15:00,36.3,31.9,30.01,SSW,194,8.0,25.0,84,0.00,,,0.20,0,Wunderground v.1.15,2013-05-13 02:15:00,
2013-05-12 22:17:00,36.3,31.9,30.01,South,191,8.0,25.0,84,0.00,,,0.20,0,Wunderground v.1.15,2013-05-13 02:17:00,
2013-05-12 22:19:00,36.4,32.0,30.01,SSW,195,7.0,25.0,84,0.00,,,0.20,0,Wunderground v.1.15,2013-05-13 02:19:00,
2013-05-12 22:21:00,36.4,32.0,30.01,SSW,196,7.0,25.0,84,0.00,,,0.20,0,Wunderground v.1.15,2013-05-13 02:21:00,
2013-05-12 22:23:00,36.4,32.0,30.02,South,190,7.0,25.0,84,0.00,,,0.20,0,Wunderground v.1.15,2013-05-13 02:23:00,
2013-05-12 22:25:00,36.4,32.0,30.01,SSW,193,6.0,25.0,84,0.00,,,0.20,0,Wunderground v.1.15,2013-05-13 02:25:00,
2013-05-12 22:27:00,36.4,32.0,30.02,WSW,248,6.0,25.0,84,0.00,,,0.20,0,Wunderground v.1.15,2013-05-13 02:27:00,
2013-05-12 22:28:00,36.3,31.9,30.02,South,178,7.0,25.0,84,0.00,,,0.20,0,Wunderground v.1.15,2013-05-13 02:28:00,
2013-05-12 22:29:00,36.4,32.0,30.02,South,182,7.0,25.0,84,0.00,,,0.20,0,Wunderground v.1.15,2013-05-13 02:29:00,
2013-05-12 22:31:00,36.4,32.3,30.02,South,191,7.0,25.0,85,0.00,,,0.20,0,Wunderground v.1.15,2013-05-13 02:31:00,
2013-05-12 22:32:00,36.4,32.3,30.02,South,182,7.0,25.0,85,0.00,,,0.20,0,Wunderground v.1.15,2013-05-13 02:32:00,
2013-05-12 22:33:00,36.4,32.3,30.02,South,182,7.0,25.0,85,0.00,,,0.20,0,Wunderground v.1.15,2013-05-13 02:33:00,
2013-05-12 22:34:00,36.4,32.3,30.02,South,184,7.0,25.0,85,0.00,,,0.20,0,Wunderground v.1.15,2013-05-13 02:34:00,
2013-05-12 22:38:00,36.4,32.0,30.02,South,174,7.0,25.0,84,0.00,,,0.20,0,Wunderground v.1.15,2013-05-13 02:38:00,
2013-05-12 22:39:00,36.4,32.0,30.02,South,173,7.0,25.0,84,0.00,,,0.20,0,Wunderground v.1.15,2013-05-13 02:39:00,
2013-05-12 22:42:00,36.4,32.0,30.02,SSW,208,7.0,25.0,84,0.00,,,0.20,0,Wunderground v.1.15,2013-05-13 02:42:00,
2013-05-12 22:45:00,36.4,32.0,30.02,South,184,6.0,25.0,84,0.00,,,0.20,0,Wunderground v.1.15,2013-05-13 02:45:00,
2013-05-12 22:46:00,36.4,32.0,30.02,SSW,203,7.0,25.0,84,0.00,,,0.20,0,Wunderground v.1.15,2013-05-13 02:46:00,
2013-05-12 22:48:00,36.4,32.0,30.01,SSW,200,6.0,25.0,84,0.00,,,0.20,0,Wunderground v.1.15,2013-05-13 02:48:00,
2013-05-12 22:49:00,36.4,32.0,30.01,South,186,6.0,25.0,84,0.00,,,0.20,0,Wunderground v.1.15,2013-05-13 02:49:00,
2013-05-12 22:52:00,36.4,32.0,30.01,South,190,6.0,25.0,84,0.00,,,0.20,0,Wunderground v.1.15,2013-05-13 02:52:00,
2013-05-12 22:53:00,36.4,32.0,30.01,South,182,6.0,25.0,84,0.00,,,0.20,0,Wunderground v.1.15,2013-05-13 02:53:00,
2013-05-12 22:54:00,36.4,32.0,30.01,South,187,6.0,25.0,84,0.00,,,0.20,0,Wunderground v.1.15,2013-05-13 02:54:00,
2013-05-12 22:56:00,36.4,32.0,30.01,South,178,6.0,25.0,84,0.00,,,0.20,0,Wunderground v.1.15,2013-05-13 02:56:00,
2013-05-12 22:58:00,36.4,32.0,30.01,South,188,6.0,25.0,84,0.00,,,0.20,0,Wunderground v.1.15,2013-05-13 02:58:00,
2013-05-12 22:59:00,36.4,32.0,30.02,SSE,155,6.0,25.0,84,0.00,,,0.20,0,Wunderground v.1.15,2013-05-13 02:59:00,
2013-05-12 23:00:00,36.4,32.0,30.01,South,191,6.0,6.0,84,0.00,,,0.20,0,Wunderground v.1.15,2013-05-13 03:00:00,
2013-05-12 23:04:00,36.4,32.0,30.01,SSW,192,6.0,25.0,84,0.00,,,0.20,0,Wunderground v.1.15,2013-05-13 03:04:00,
2013-05-12 23:05:00,36.4,32.3,30.01,SSW,197,6.0,25.0,85,0.00,,,0.20,0,Wunderground v.1.15,2013-05-13 03:05:00,
2013-05-12 23:07:00,36.4,32.3,30.01,South,173,5.0,25.0,85,0.00,,,0.20,0,Wunderground v.1.15,2013-05-13 03:07:00,
2013-05-12 23:08:00,36.4,32.3,30.01,SSW,209,6.0,25.0,85,0.00,,,0.20,0,Wunderground v.1.15,2013-05-13 03:08:00,
2013-05-12 23:09:00,36.4,32.0,30.01,South,180,6.0,25.0,84,0.00,,,0.20,0,Wunderground v.1.15,2013-05-13 03:09:00,
2013-05-12 23:13:00,36.4,32.3,30.01,SSE,163,6.0,25.0,85,0.00,,,0.20,0,Wunderground v.1.15,2013-05-13 03:13:00,
2013-05-12 23:15:00,36.4,32.3,30.01,South,186,6.0,25.0,85,0.00,,,0.20,0,Wunderground v.1.15,2013-05-13 03:15:00,
2013-05-12 23:16:00,36.4,32.3,30.01,SSW,194,6.0,25.0,85,0.00,,,0.20,0,Wunderground v.1.15,2013-05-13 03:16:00,
2013-05-12 23:19:00,36.4,32.3,30.01,SSW,194,6.0,25.0,85,0.00,,,0.20,0,Wunderground v.1.15,2013-05-13 03:19:00,
2013-05-12 23:20:00,36.4,32.3,30.01,South,182,6.0,25.0,85,0.00,,,0.20,0,Wunderground v.1.15,2013-05-13 03:20:00,
2013-05-12 23:22:00,36.4,32.3,30.01,SSW,198,6.0,25.0,85,0.00,,,0.20,0,Wunderground v.1.15,2013-05-13 03:22:00,
2013-05-12 23:25:00,36.4,32.3,30.01,South,186,5.0,25.0,85,0.00,,,0.20,0,Wunderground v.1.15,2013-05-13 03:25:00,
2013-05-12 23:28:00,36.4,32.3,30.01,SSW,204,6.0,25.0,85,0.00,,,0.20,0,Wunderground v.1.15,2013-05-13 03:28:00,
2013-05-12 23:29:00,36.5,32.4,30.01,South,182,7.0,25.0,85,0.00,,,0.20,0,Wunderground v.1.15,2013-05-13 03:29:00,
2013-05-12 23:33:00,36.5,32.1,30.01,SSW,196,7.0,25.0,84,0.00,,,0.20,0,Wunderground v.1.15,2013-05-13 03:33:00,
2013-05-12 23:35:00,36.6,32.5,30.01,SSW,198,8.0,25.0,85,0.00,,,0.20,0,Wunderground v.1.15,2013-05-13 03:35:00,
2013-05-12 23:36:00,36.6,32.5,30.01,SSW,197,7.0,25.0,85,0.00,,,0.20,0,Wunderground v.1.15,2013-05-13 03:36:00,
2013-05-12 23:40:00,36.6,32.5,30.01,SSW,205,7.0,25.0,85,0.00,,,0.20,0,Wunderground v.1.15,2013-05-13 03:40:00,
2013-05-12 23:41:00,36.6,32.5,30.01,South,183,8.0,25.0,85,0.00,,,0.20,0,Wunderground v.1.15,2013-05-13 03:41:00,
2013-05-12 23:43:00,36.6,32.5,30.01,SSW,192,8.0,25.0,85,0.00,,,0.20,0,Wunderground v.1.15,2013-05-13 03:43:00,
2013-05-12 23:47:00,36.6,32.5,30.01,South,184,9.0,25.0,85,0.00,,,0.20,0,Wunderground v.1.15,2013-05-13 03:47:00,
2013-05-12 23:50:00,36.6,32.5,30.01,South,178,8.0,25.0,85,0.00,,,0.20,0,Wunderground v.1.15,2013-05-13 03:50:00,
2013-05-12 23:51:00,36.6,32.5,30.01,SSW,202,8.0,25.0,85,0.00,,,0.20,0,Wunderground v.1.15,2013-05-13 03:51:00,
2013-05-12 23:54:00,36.6,32.5,30.01,South,185,7.0,25.0,85,0.00,,,0.20,0,Wunderground v.1.15,2013-05-13 03:54:00,
2013-05-12 23:55:00,36.6,32.5,30.01,South,186,7.0,25.0,85,0.00,,,0.20,0,Wunderground v.1.15,2013-05-13 03:55:00,
2013-05-12 23:59:00,36.5,32.4,30.01,South,184,6.0,25.0,85,0.00,,,0.00,0,Wunderground v.1.15,2013-05-13 03:59:00,